KB9ZI Weather Reports


Display with metric or nautical units.
time (UTC)temp
F
wind
direction
speed
MPH
gust
MPH
rain 1hr
in
rain 24hr
in
rain mn
in
humidity
%
barometer
mb
20240421042713 38 261 0.0 0.0 0.00 0.00 0.00 58 1022.5
20240421042614 38 262 0.0 0.0 0.00 0.00 0.00 58 1022.6
20240421042543 38 262 0.0 0.0 0.00 0.00 0.00 57 1022.5
20240421042510 38 262 0.0 0.0 0.00 0.00 0.00 57 1022.7
20240421042442 38 262 0.0 0.0 0.00 0.00 0.00 57 1022.7
20240421042411 38 262 0.0 0.0 0.00 0.00 0.00 57 1022.6
20240421042107 38 257 0.0 0.0 0.00 0.00 0.00 57 1022.6
20240421042009 38 257 0.0 0.0 0.00 0.00 0.00 57 1022.6
20240421041906 38 257 0.0 0.0 0.00 0.00 0.00 57 1022.6
20240421041805 38 257 0.0 1.0 0.00 0.00 0.00 56 1022.7
20240421041703 38 257 0.0 1.0 0.00 0.00 0.00 56 1022.7
20240421041611 38 257 0.0 1.0 0.00 0.00 0.00 56 1022.7
20240421041602 38 266 0.0 1.0 0.00 0.00 0.00 56 1022.6
20240421041532 38 266 0.0 1.0 0.00 0.00 0.00 57 1022.6
20240421041510 38 266 0.0 1.0 0.00 0.00 0.00 56 1022.6
20240421041442 38 266 0.0 1.0 0.00 0.00 0.00 56 1022.6
20240421041416 38 266 0.0 1.0 0.00 0.00 0.00 56 1022.6
20240421041351 38 266 0.0 1.0 0.00 0.00 0.00 57 1022.6
20240421041059 38 266 0.0 1.0 0.00 0.00 0.00 57 1022.6
20240421040959 38 248 0.0 1.0 0.00 0.00 0.00 57 1022.6
20240421040856 38 248 0.0 1.0 0.00 0.00 0.00 57 1022.7
20240421040755 38 248 0.0 1.0 0.00 0.00 0.00 57 1022.6
20240421040653 39 251 0.0 0.0 0.00 0.00 0.00 56 1022.7
20240421040614 38 251 0.0 0.0 0.00 0.00 0.00 57 1022.7
20240421040556 39 251 0.0 0.0 0.00 0.00 0.00 56 1022.7
20240421040549 39 251 0.0 0.0 0.00 0.00 0.00 57 1022.7
20240421040513 39 251 0.0 0.0 0.00 0.00 0.00 57 1022.7
20240421040443 39 251 0.0 0.0 0.00 0.00 0.00 57 1022.7
20240421040414 39 251 0.0 0.0 0.00 0.00 0.00 56 1022.8
20240421040344 39 251 0.0 0.0 0.00 0.00 0.00 56 1022.7
20240421040032 39 250 0.0 0.0 0.00 0.00 0.00 57 1022.7
20240421035932 39 250 0.0 0.0 0.00 0.00 0.00 56 1022.8
20240421035830 39 251 0.0 0.0 0.00 0.00 0.00 57 1022.8
20240421035730 39 251 0.0 0.0 0.00 0.00 0.00 56 1022.8
20240421035613 39 251 0.0 0.0 0.00 0.00 0.00 55 1022.7
20240421035529 39 251 0.0 0.0 0.00 0.00 0.00 56 1022.8
20240421035429 39 250 0.0 0.0 0.00 0.00 0.00 55 1022.7
20240421035329 39 252 0.0 0.0 0.00 0.00 0.00 55 1022.8
20240421035229 39 248 0.0 3.0 0.00 0.00 0.00 55 1022.8
20240421035133 39 247 0.0 3.0 0.00 0.00 0.00 55 1022.8
20240421035113 39 245 0.0 3.0 0.00 0.00 0.00 55 1022.8
20240421035029 39 247 0.0 3.0 0.00 0.00 0.00 56 1022.8
20240421034929 39 248 0.0 3.0 0.00 0.00 0.00 56 1022.8
20240421034829 39 248 0.0 3.0 0.00 0.00 0.00 56 1022.7
20240421034730 39 248 0.0 3.0 0.00 0.00 0.00 55 1022.7
20240421034630 39 268 0.0 3.0 0.00 0.00 0.00 55 1022.8
20240421034530 39 268 0.0 3.0 0.00 0.00 0.00 55 1022.8
20240421034431 39 268 0.0 3.0 0.00 0.00 0.00 55 1022.7
20240421034321 39 268 0.0 3.0 0.00 0.00 0.00 55 1022.9
20240421034218 39 269 0.0 0.0 0.00 0.00 0.00 55 1022.8
20240421034118 39 269 0.0 0.0 0.00 0.00 0.00 55 1022.8
20240421034015 39 269 0.0 0.0 0.00 0.00 0.00 55 1022.8
20240421033917 39 269 0.0 0.0 0.00 0.00 0.00 55 1022.8
20240421033813 39 269 0.0 0.0 0.00 0.00 0.00 55 1022.7
20240421033712 39 269 0.0 0.0 0.00 0.00 0.00 55 1022.7
20240421033613 39 269 0.0 0.0 0.00 0.00 0.00 55 1022.7
20240421033513 39 269 0.0 0.0 0.00 0.00 0.00 55 1022.8
20240421033412 39 269 0.0 0.0 0.00 0.00 0.00 54 1022.7
20240421033314 39 269 0.0 0.0 0.00 0.00 0.00 54 1022.8
20240421033212 39 269 0.0 0.0 0.00 0.00 0.00 54 1022.8
20240421033118 39 269 0.0 0.0 0.00 0.00 0.00 54 1022.8
20240421033014 39 269 0.0 0.0 0.00 0.00 0.00 54 1022.8
20240421032912 39 269 0.0 0.0 0.00 0.00 0.00 54 1022.8
20240421032813 39 269 0.0 0.0 0.00 0.00 0.00 54 1022.8
20240421032711 39 269 0.0 0.0 0.00 0.00 0.00 53 1022.7
20240421032613 39 269 0.0 0.0 0.00 0.00 0.00 53 1022.8
20240421032521 39 269 0.0 0.0 0.00 0.00 0.00 53 1022.8
20240421032412 39 269 0.0 0.0 0.00 0.00 0.00 53 1022.7
20240421032312 39 269 0.0 0.0 0.00 0.00 0.00 53 1022.8
20240421032212 39 269 0.0 0.0 0.00 0.00 0.00 53 1022.8
20240421032113 39 269 0.0 0.0 0.00 0.00 0.00 53 1022.7
20240421032013 39 269 0.0 0.0 0.00 0.00 0.00 53 1022.7
20240421031912 40 269 0.0 0.0 0.00 0.00 0.00 53 1022.7
20240421031814 40 269 0.0 0.0 0.00 0.00 0.00 53 1022.8
20240421031713 40 269 0.0 0.0 0.00 0.00 0.00 53 1022.8
20240421031613 40 269 0.0 0.0 0.00 0.00 0.00 52 1022.9
20240421031545 40 269 0.0 0.0 0.00 0.00 0.00 52 1022.9
20240421031528 40 269 0.0 0.0 0.00 0.00 0.00 52 1022.8
20240421031456 40 269 0.0 0.0 0.00 0.00 0.00 52 1022.8
20240421031427 40 269 0.0 0.0 0.00 0.00 0.00 52 1022.8
20240421031358 40 269 0.0 0.0 0.00 0.00 0.00 52 1022.9
20240421031326 40 269 0.0 0.0 0.00 0.00 0.00 52 1022.9
20240421031016 40 269 0.0 0.0 0.00 0.00 0.00 52 1022.8
20240421030911 40 269 0.0 0.0 0.00 0.00 0.00 52 1022.9
20240421030811 40 269 0.0 0.0 0.00 0.00 0.00 52 1022.9
20240421030711 40 269 0.0 0.0 0.00 0.00 0.00 52 1022.9
20240421030610 40 269 0.0 0.0 0.00 0.00 0.00 52 1022.8
20240421030524 40 269 0.0 0.0 0.00 0.00 0.00 52 1022.8
20240421030453 40 269 0.0 0.0 0.00 0.00 0.00 52 1022.8
20240421030424 40 269 0.0 0.0 0.00 0.00 0.00 52 1022.9
20240421030354 40 271 0.0 0.0 0.00 0.00 0.00 51 1022.9
20240421030109 40 271 0.0 0.0 0.00 0.00 0.00 52 1022.9
20240421030004 40 271 0.0 0.0 0.00 0.00 0.00 52 1023.0
20240421025904 40 271 0.0 0.0 0.00 0.00 0.00 52 1022.9
20240421025804 40 271 0.0 0.0 0.00 0.00 0.00 51 1022.9
20240421025701 40 271 0.0 0.0 0.00 0.00 0.00 51 1022.9
20240421025612 40 271 0.0 0.0 0.00 0.00 0.00 51 1022.9
20240421025601 40 271 0.0 0.0 0.00 0.00 0.00 51 1022.9
20240421025513 40 271 0.0 0.0 0.00 0.00 0.00 51 1022.9
20240421025444 40 271 0.0 0.0 0.00 0.00 0.00 51 1023.0
20240421025415 40 271 0.0 0.0 0.00 0.00 0.00 51 1022.9
20240421025339 40 271 0.0 0.0 0.00 0.00 0.00 51 1022.9
20240421025044 40 271 0.0 0.0 0.00 0.00 0.00 51 1022.9
20240421024941 40 271 0.0 0.0 0.00 0.00 0.00 51 1022.9
20240421024841 40 271 0.0 0.0 0.00 0.00 0.00 51 1022.9
20240421024740 40 271 0.0 0.0 0.00 0.00 0.00 50 1022.9
20240421024637 40 271 0.0 0.0 0.00 0.00 0.00 51 1022.9
20240421024611 41 271 0.0 0.0 0.00 0.00 0.00 51 1022.9
20240421024550 41 271 0.0 0.0 0.00 0.00 0.00 49 1022.9
20240421024535 41 271 0.0 0.0 0.00 0.00 0.00 50 1022.9
20240421024503 41 271 0.0 0.0 0.00 0.00 0.00 49 1022.9
20240421024434 41 271 0.0 0.0 0.00 0.00 0.00 50 1022.9
20240421024406 41 271 0.0 0.0 0.00 0.00 0.00 49 1023.0
20240421024335 41 271 0.0 0.0 0.00 0.00 0.00 49 1022.9
20240421024029 41 271 0.0 0.0 0.00 0.00 0.00 49 1022.9
20240421023926 41 271 0.0 0.0 0.00 0.00 0.00 49 1022.9
20240421023825 41 271 0.0 0.0 0.00 0.00 0.00 48 1022.9
20240421023723 41 271 0.0 0.0 0.00 0.00 0.00 49 1022.8
20240421023610 41 271 0.0 0.0 0.00 0.00 0.00 49 1022.9
20240421023547 41 271 0.0 0.0 0.00 0.00 0.00 49 1022.8
20240421023528 41 271 0.0 0.0 0.00 0.00 0.00 49 1022.9
20240421023455 41 271 0.0 0.0 0.00 0.00 0.00 49 1022.8
20240421023426 41 271 0.0 0.0 0.00 0.00 0.00 49 1022.8
20240421023356 41 271 0.0 0.0 0.00 0.00 0.00 50 1022.8
20240421023329 41 271 0.0 0.0 0.00 0.00 0.00 49 1022.8
20240421023017 41 271 0.0 0.0 0.00 0.00 0.00 49 1022.8
20240421022914 41 271 0.0 0.0 0.00 0.00 0.00 49 1022.8
20240421022812 41 271 0.0 0.0 0.00 0.00 0.00 49 1022.7
20240421022711 41 271 0.0 0.0 0.00 0.00 0.00 49 1022.7
20240421022615 42 271 0.0 0.0 0.00 0.00 0.00 49 1022.8
20240421022545 42 271 0.0 0.0 0.00 0.00 0.00 49 1022.7
20240421022525 42 271 0.0 0.0 0.00 0.00 0.00 49 1022.7
20240421022456 42 271 0.0 0.0 0.00 0.00 0.00 49 1022.8
20240421022426 42 271 0.0 0.0 0.00 0.00 0.00 49 1022.7
20240421022356 42 271 0.0 0.0 0.00 0.00 0.00 48 1022.7
20240421022324 42 271 0.0 0.0 0.00 0.00 0.00 49 1022.7
20240421022015 42 271 0.0 0.0 0.00 0.00 0.00 49 1022.7
20240421021913 42 271 0.0 0.0 0.00 0.00 0.00 48 1022.7
20240421021814 42 271 0.0 0.0 0.00 0.00 0.00 48 1022.7
20240421021714 42 271 0.0 0.0 0.00 0.00 0.00 47 1022.7
20240421021614 42 271 0.0 0.0 0.00 0.00 0.00 47 1022.7
20240421021536 43 271 0.0 0.0 0.00 0.00 0.00 47 1022.6
20240421021522 42 271 0.0 0.0 0.00 0.00 0.00 47 1022.8
20240421021459 42 271 0.0 0.0 0.00 0.00 0.00 47 1022.6
20240421021428 42 271 0.0 0.0 0.00 0.00 0.00 47 1022.6
20240421021359 42 271 0.0 0.0 0.00 0.00 0.00 47 1022.6
20240421021326 43 271 0.0 0.0 0.00 0.00 0.00 47 1022.6
20240421021020 43 271 0.0 0.0 0.00 0.00 0.00 45 1022.6
20240421020912 43 271 0.0 0.0 0.00 0.00 0.00 45 1022.6
20240421020813 43 271 0.0 0.0 0.00 0.00 0.00 45 1022.6
20240421020713 43 271 0.0 0.0 0.00 0.00 0.00 45 1022.6
20240421020613 43 271 0.0 0.0 0.00 0.00 0.00 46 1022.6
20240421020544 43 271 0.0 0.0 0.00 0.00 0.00 45 1022.6
20240421020528 43 271 0.0 0.0 0.00 0.00 0.00 47 1022.6
20240421020453 43 271 0.0 0.0 0.00 0.00 0.00 46 1022.5
20240421020423 43 271 0.0 0.0 0.00 0.00 0.00 46 1022.5
20240421020356 43 271 0.0 0.0 0.00 0.00 0.00 44 1022.6
20240421020324 43 271 0.0 0.0 0.00 0.00 0.00 45 1022.6
20240421020016 43 271 0.0 0.0 0.00 0.00 0.00 44 1022.5
20240421015913 43 271 0.0 0.0 0.00 0.00 0.00 44 1022.5
20240421015814 43 271 0.0 0.0 0.00 0.00 0.00 44 1022.6
20240421015711 43 271 0.0 0.0 0.00 0.00 0.00 44 1022.5
20240421015614 43 271 0.0 0.0 0.00 0.00 0.00 44 1022.5
20240421015513 43 271 0.0 0.0 0.00 0.00 0.00 43 1022.5
20240421015412 43 271 0.0 0.0 0.00 0.00 0.00 44 1022.5
20240421015314 44 271 0.0 0.0 0.00 0.00 0.00 43 1022.5
20240421015214 44 271 0.0 0.0 0.00 0.00 0.00 43 1022.5
20240421015113 44 271 0.0 0.0 0.00 0.00 0.00 43 1022.4
20240421015016 44 271 0.0 0.0 0.00 0.00 0.00 43 1022.5
20240421014912 44 271 0.0 0.0 0.00 0.00 0.00 43 1022.4
20240421014813 44 271 0.0 0.0 0.00 0.00 0.00 42 1022.4
20240421014711 44 271 0.0 0.0 0.00 0.00 0.00 42 1022.4
20240421014613 44 269 0.0 0.0 0.00 0.00 0.00 43 1022.3
20240421014547 44 269 0.0 0.0 0.00 0.00 0.00 43 1022.4
20240421014530 44 269 0.0 0.0 0.00 0.00 0.00 42 1022.4
20240421014453 44 269 0.0 0.0 0.00 0.00 0.00 43 1022.4
20240421014423 44 269 0.0 0.0 0.00 0.00 0.00 43 1022.4
20240421014354 44 269 0.0 0.0 0.00 0.00 0.00 42 1022.4
20240421014324 44 269 0.0 0.0 0.00 0.00 0.00 43 1022.4
20240421014014 44 258 0.0 5.0 0.00 0.00 0.00 43 1022.4
20240421013911 44 258 0.0 5.0 0.00 0.00 0.00 42 1022.4
20240421013814 44 258 0.0 5.0 0.00 0.00 0.00 42 1022.3
20240421013712 44 258 0.0 5.0 0.00 0.00 0.00 42 1022.3
20240421013613 44 258 0.0 5.0 0.00 0.00 0.00 41 1022.4
20240421013549 44 258 0.0 5.0 0.00 0.00 0.00 41 1022.3
20240421013527 44 258 0.0 5.0 0.00 0.00 0.00 42 1022.4
20240421013454 44 258 0.0 5.0 0.00 0.00 0.00 42 1022.4
20240421013422 44 257 0.0 5.0 0.00 0.00 0.00 42 1022.3
20240421013357 44 258 0.0 5.0 0.00 0.00 0.00 41 1022.4
20240421013326 44 258 0.0 5.0 0.00 0.00 0.00 41 1022.3
20240421013015 44 286 0.0 3.0 0.00 0.00 0.00 41 1022.4
20240421012912 44 272 0.0 1.0 0.00 0.00 0.00 42 1022.4
20240421012814 44 265 0.0 1.0 0.00 0.00 0.00 42 1022.4
20240421012711 44 293 0.0 0.0 0.00 0.00 0.00 41 1022.4
20240421012613 44 293 0.0 1.0 0.00 0.00 0.00 41 1022.4
20240421012553 45 266 0.0 4.0 0.00 0.00 0.00 41 1022.4
20240421012533 44 293 0.0 1.0 0.00 0.00 0.00 41 1022.3
20240421012458 44 293 0.0 2.0 0.00 0.00 0.00 42 1022.3
20240421012427 45 293 0.0 2.0 0.00 0.00 0.00 41 1022.4
20240421012359 45 293 0.0 4.0 0.00 0.00 0.00 41 1022.4
20240421012326 45 266 0.0 4.0 0.00 0.00 0.00 41 1022.4
20240421012014 45 257 0.0 4.0 0.00 0.00 0.00 41 1022.3
20240421011912 45 266 0.0 4.0 0.00 0.00 0.00 41 1022.3
20240421011813 45 292 0.0 4.0 0.00 0.00 0.00 40 1022.3
20240421011712 45 292 0.0 4.0 0.00 0.00 0.00 40 1022.3
20240421011614 45 269 0.0 4.0 0.00 0.00 0.00 40 1022.3
20240421011515 45 283 0.0 4.0 0.00 0.00 0.00 40 1022.2
20240421011443 45 258 0.0 4.0 0.00 0.00 0.00 40 1022.3
20240421011343 45 276 0.0 4.0 0.00 0.00 0.00 41 1022.2
20240421011244 45 288 0.0 1.0 0.00 0.00 0.00 41 1022.3
20240421011150 45 296 0.0 1.0 0.00 0.00 0.00 40 1022.2
20240421011112 45 296 0.0 1.0 0.00 0.00 0.00 40 1022.2
20240421011043 45 281 0.0 1.0 0.00 0.00 0.00 41 1022.2
20240421010942 45 281 0.0 2.0 0.00 0.00 0.00 41 1022.1
20240421010844 45 274 0.0 4.0 0.00 0.00 0.00 41 1022.2
20240421010744 45 274 0.0 4.0 0.00 0.00 0.00 41 1022.2
20240421010651 45 272 0.0 4.0 0.00 0.00 0.00 41 1022.1
20240421010613 45 272 0.0 4.0 0.00 0.00 0.00 41 1022.1
20240421010545 45 272 0.0 4.0 0.00 0.00 0.00 41 1022.1
20240421010446 45 272 0.0 4.0 0.00 0.00 0.00 40 1022.2
20240421010344 45 265 0.0 4.0 0.00 0.00 0.00 40 1022.2
20240421010244 46 324 0.0 5.0 0.00 0.00 0.00 40 1022.1
20240421010149 46 245 0.0 5.0 0.00 0.00 0.00 40 1022.2
20240421010112 46 245 0.0 5.0 0.00 0.00 0.00 40 1022.2
20240421010048 46 254 0.0 5.0 0.00 0.00 0.00 40 1022.2
20240421005945 46 275 0.0 5.0 0.00 0.00 0.00 39 1022.2
20240421005847 46 272 0.0 5.0 0.00 0.00 0.00 40 1022.2
20240421005751 46 288 0.0 5.0 0.00 0.00 0.00 40 1022.2
20240421005648 46 296 0.0 5.0 0.00 0.00 0.00 40 1022.2
20240421005613 46 296 0.0 5.0 0.00 0.00 0.00 40 1022.2
20240421005545 46 296 0.0 5.0 0.00 0.00 0.00 40 1022.2
20240421005445 46 275 0.0 5.0 0.00 0.00 0.00 39 1022.1
20240421005343 46 286 0.0 5.0 0.00 0.00 0.00 39 1022.1
20240421005243 46 251 0.0 5.0 0.00 0.00 0.00 40 1022.2
20240421005152 46 272 0.0 5.0 0.00 0.00 0.00 39 1022.2
20240421005110 46 272 0.0 5.0 0.00 0.00 0.00 39 1022.2
20240421005043 46 268 0.0 5.0 0.00 0.00 0.00 39 1022.2
20240421004945 46 268 0.0 3.0 0.00 0.00 0.00 39 1022.2
20240421004846 46 247 0.0 3.0 0.00 0.00 0.00 39 1022.3
20240421004744 46 247 0.0 3.0 0.00 0.00 0.00 39 1022.1
20240421004652 46 290 0.0 1.0 0.00 0.00 0.00 39 1022.2
20240421004609 46 316 0.0 1.0 0.00 0.00 0.00 39 1022.2
20240421004543 46 313 0.0 1.0 0.00 0.00 0.00 39 1022.2
20240421004441 46 312 0.0 1.0 0.00 0.00 0.00 39 1022.2
20240421004347 46 266 0.0 1.0 0.00 0.00 0.00 39 1022.2
20240421004245 46 265 0.0 4.0 0.00 0.00 0.00 39 1022.2
20240421004149 46 265 0.0 4.0 0.00 0.00 0.00 38 1022.2
20240421004109 46 265 0.0 4.0 0.00 0.00 0.00 38 1022.2
20240421004045 46 288 0.0 6.0 0.00 0.00 0.00 38 1022.3
20240421003942 46 285 0.0 6.0 0.00 0.00 0.00 38 1022.3
20240421003844 46 276 0.0 6.0 0.00 0.00 0.00 39 1022.2
20240421003740 46 278 0.0 6.0 0.00 0.00 0.00 40 1022.2
20240421003653 46 279 0.0 6.0 0.00 0.00 0.00 40 1022.1
20240421003606 46 281 0.0 6.0 0.00 0.00 0.00 40 1022.2
20240421003541 46 252 0.0 6.0 0.00 0.00 0.00 38 1022.2
20240421003448 46 251 0.0 6.0 0.00 0.00 0.00 37 1022.1
20240421003342 46 299 0.0 6.0 0.00 0.00 0.00 38 1022.2
20240421003246 47 248 0.0 6.0 0.00 0.00 0.00 38 1022.2
20240421003150 47 268 0.0 6.0 0.00 0.00 0.00 38 1022.2
20240421003106 47 285 0.0 6.0 0.00 0.00 0.00 38 1022.2
20240421003048 47 285 0.0 6.0 0.00 0.00 0.00 38 1022.2
20240421002944 47 262 0.0 6.0 0.00 0.00 0.00 37 1022.2
20240421002847 47 269 0.0 6.0 0.00 0.00 0.00 38 1022.2
20240421002744 47 271 0.0 6.0 0.00 0.00 0.00 37 1022.2
20240421002648 47 268 0.0 5.0 0.00 0.00 0.00 38 1022.2
20240421002605 47 302 0.0 5.0 0.00 0.00 0.00 38 1022.2
20240421002546 47 264 0.0 1.0 0.00 0.00 0.00 38 1022.2
20240421002445 47 298 0.0 1.0 0.00 0.00 0.00 38 1022.2
20240421002344 47 282 0.0 1.0 0.00 0.00 0.00 38 1022.1
20240421002245 47 268 0.0 1.0 0.00 0.00 0.00 39 1022.2
20240421002145 47 274 0.0 3.0 0.00 0.00 0.00 40 1022.2
20240421002104 47 271 0.0 3.0 0.00 0.00 0.00 40 1022.2
20240421002049 47 266 0.0 3.0 0.00 0.00 0.00 38 1022.2
20240421002033 47 285 0.0 6.0 0.00 0.00 0.00 37 1022.2
20240421002027 47 285 0.0 6.0 0.00 0.00 0.00 37 1022.3
20240421001944 47 266 0.0 6.0 0.00 0.00 0.00 38 1022.2
20240421001849 47 285 0.0 6.0 0.00 0.00 0.00 38 1022.3
20240421001542 47 254 0.0 6.0 0.00 0.00 0.00 37 1022.3
20240421001447 47 262 0.0 6.0 0.00 0.00 0.00 37 1022.3
20240421001346 47 283 0.0 6.0 0.00 0.00 0.00 37 1022.3
20240421001241 47 226 0.0 6.0 0.00 0.00 0.00 37 1022.3
20240421001148 47 299 0.0 6.0 0.00 0.00 0.00 37 1022.2
20240421001101 47 299 0.0 6.0 0.00 0.00 0.00 37 1022.2
20240421001048 47 271 0.0 6.0 0.00 0.00 0.00 37 1022.2
20240421001034 47 27 0.0 7.0 0.00 0.00 0.00 38 1022.2
20240421001029 47 27 0.0 7.0 0.00 0.00 0.00 37 1022.2
20240421000943 47 244 0.0 7.0 0.00 0.00 0.00 37 1022.2
20240421000847 47 293 0.0 7.0 0.00 0.00 0.00 38 1022.2
20240421000541 47 340 0.0 7.0 0.00 0.00 0.00 39 1022.2
20240421000443 47 303 0.0 7.0 0.00 0.00 0.00 37 1022.1
20240421000344 47 298 0.0 7.0 0.00 0.00 0.00 36 1022.2
20240421000247 47 344 0.0 7.0 0.00 0.00 0.00 36 1022.2
20240421000146 47 288 0.0 7.0 0.00 0.00 0.00 37 1022.2
20240421000102 47 282 0.0 7.0 0.00 0.00 0.00 38 1022.2
20240421000058 47 278 0.0 7.0 0.00 0.00 0.00 39 1022.2
20240421000035 47 261 0.0 3.0 0.00 0.00 0.00 38 1022.2
20240420235952 48 274 0.0 3.0 0.00 0.00 0.00 39 1022.2
20240420235849 47 250 0.0 3.0 0.00 0.00 0.00 39 1022.3
20240420235541 47 305 0.0 3.0 0.00 0.00 0.00 38 1022.2
20240420235410 47 286 0.0 3.0 0.00 0.00 0.00 37 1022.2
20240420235303 47 286 0.0 3.0 0.00 0.00 0.00 37 1022.2
20240420235206 47 248 0.0 1.0 0.00 0.00 0.00 39 1022.2
20240420235104 47 279 0.0 1.0 0.00 0.00 0.00 39 1022.2
20240420235005 47 279 0.0 4.0 0.00 0.00 0.00 39 1022.3
20240420234834 47 279 0.0 6.0 0.00 0.00 0.00 39 1022.3
20240420234710 47 279 0.0 6.0 0.00 0.00 0.00 39 1022.3
20240420234614 47 282 0.0 6.0 0.00 0.00 0.00 39 1022.3
20240420234557 47 279 0.0 6.0 0.00 0.00 0.00 39 1022.3
20240420234511 47 240 0.0 6.0 0.00 0.00 0.00 39 1022.3
20240420234411 47 265 0.0 6.0 0.00 0.00 0.00 40 1022.3
20240420234309 47 305 0.0 6.0 0.00 0.00 0.00 38 1022.3
20240420234208 47 252 0.0 6.0 0.00 0.00 0.00 37 1022.3
20240420234110 47 289 0.0 6.0 0.00 0.00 0.00 37 1022.3
20240420234055 47 290 0.0 6.0 0.00 0.00 0.00 37 1022.3
20240420234007 47 290 0.0 6.0 0.00 0.00 0.00 37 1022.3
20240420233903 47 289 0.0 6.0 0.00 0.00 0.00 38 1022.3
20240420233804 47 275 0.0 6.0 0.00 0.00 0.00 37 1022.3
20240420233704 48 333 0.0 6.0 0.00 0.00 0.00 37 1022.3
20240420233610 48 292 0.0 6.0 0.00 0.00 0.00 37 1022.4
20240420233556 48 292 0.0 6.0 0.00 0.00 0.00 37 1022.4
20240420233504 48 224 0.0 6.0 0.00 0.00 0.00 37 1022.4
20240420233405 48 306 0.0 6.0 0.00 0.00 0.00 36 1022.4
20240420233303 48 220 0.0 6.0 0.00 0.00 0.00 36 1022.4
20240420233205 48 276 0.0 6.0 0.00 0.00 0.00 36 1022.4
20240420233107 48 293 0.0 6.0 0.00 0.00 0.00 35 1022.3
20240420233054 49 265 0.0 6.0 0.00 0.00 0.00 35 1022.3
20240420233003 49 276 0.0 6.0 0.00 0.00 0.00 35 1022.4
20240420232904 49 278 0.0 6.0 0.00 0.00 0.00 35 1022.4
20240420232804 49 272 0.0 6.0 0.00 0.00 0.00 36 1022.5
20240420232700 49 258 0.0 7.0 0.00 0.00 0.00 35 1022.4
20240420232606 49 314 0.0 7.0 0.00 0.00 0.00 35 1022.4
20240420232553 49 23 0.0 7.0 0.00 0.00 0.00 35 1022.4
20240420232458 49 333 0.0 7.0 0.00 0.00 0.00 36 1022.4
20240420232356 49 313 0.0 7.0 0.00 0.00 0.00 39 1022.3
20240420232255 48 238 0.0 9.0 0.00 0.00 0.00 36 1022.4
20240420232149 48 276 0.0 12.0 0.00 0.00 0.00 39 1022.3
20240420232055 48 268 0.0 12.0 0.00 0.00 0.00 37 1022.3
20240420232048 48 240 0.0 12.0 0.00 0.00 0.00 37 1022.3
20240420231944 48 282 0.0 16.0 0.00 0.00 0.00 37 1022.3
20240420231842 48 296 0.0 16.0 0.00 0.00 0.00 37 1022.2
20240420231743 48 282 0.0 16.0 0.00 0.00 0.00 37 1022.3
20240420231638 48 265 0.0 16.0 0.00 0.00 0.00 37 1022.3
20240420231552 48 245 0.0 16.0 0.00 0.00 0.00 37 1022.2
20240420231541 48 243 0.0 16.0 0.00 0.00 0.00 39 1022.2
20240420231431 48 224 0.0 16.0 0.00 0.00 0.00 37 1022.3
20240420231329 48 261 0.0 16.0 0.00 0.00 0.00 37 1022.3
20240420231230 48 259 0.0 16.0 0.00 0.00 0.00 37 1022.3
20240420231131 48 241 0.0 16.0 0.00 0.00 0.00 36 1022.2
20240420231052 48 269 0.0 16.0 0.00 0.00 0.00 37 1022.3
20240420231029 48 310 0.0 16.0 0.00 0.00 0.00 37 1022.3
20240420231023 48 298 0.0 11.0 0.00 0.00 0.00 37 1022.4
20240420230953 48 264 0.0 11.0 0.00 0.00 0.00 36 1022.3
20240420230923 49 289 0.0 11.0 0.00 0.00 0.00 38 1022.3
20240420230852 49 245 0.0 11.0 0.00 0.00 0.00 39 1022.3
20240420230825 48 262 0.0 11.0 0.00 0.00 0.00 38 1022.3
20240420230532 48 255 0.0 11.0 0.00 0.00 0.00 38 1022.4
20240420230528 48 337 0.0 9.0 0.00 0.00 0.00 38 1022.3
20240420230457 48 235 0.0 11.0 0.00 0.00 0.00 37 1022.3
20240420230425 48 279 0.0 10.0 0.00 0.00 0.00 37 1022.3
20240420230353 48 271 0.0 9.0 0.00 0.00 0.00 37 1022.4
20240420230321 48 276 0.0 9.0 0.00 0.00 0.00 37 1022.4
20240420230026 48 269 0.0 9.0 0.00 0.00 0.00 38 1022.3
20240420225923 48 337 0.0 7.0 0.00 0.00 0.00 39 1022.3
20240420225824 48 293 0.0 7.0 0.00 0.00 0.00 40 1022.3
20240420225722 48 272 0.0 11.0 0.00 0.00 0.00 38 1022.3
20240420225621 48 261 0.0 11.0 0.00 0.00 0.00 38 1022.3
20240420225548 48 283 0.0 11.0 0.00 0.00 0.00 38 1022.3
20240420225540 49 292 0.0 11.0 0.00 0.00 0.00 37 1022.3
20240420225525 48 279 0.0 11.0 0.00 0.00 0.00 38 1022.3
20240420225452 49 305 0.0 11.0 0.00 0.00 0.00 37 1022.3
20240420225420 49 283 0.0 11.0 0.00 0.00 0.00 38 1022.3
20240420225348 49 261 0.0 11.0 0.00 0.00 0.00 38 1022.4
20240420225315 49 279 0.0 11.0 0.00 0.00 0.00 38 1022.4
20240420225012 49 262 0.0 11.0 0.00 0.00 0.00 37 1022.3
20240420224911 49 226 0.0 11.0 0.00 0.00 0.00 37 1022.4
20240420224815 49 259 0.0 11.0 0.00 0.00 0.00 38 1022.4
20240420224711 49 289 0.0 11.0 0.00 0.00 0.00 39 1022.4
20240420224616 49 240 0.0 11.0 0.00 0.00 0.00 36 1022.4
20240420224606 49 245 0.0 10.0 0.00 0.00 0.00 37 1022.3
20240420224550 49 282 0.0 11.0 0.00 0.00 0.00 38 1022.4
20240420224528 49 283 0.0 11.0 0.00 0.00 0.00 38 1022.4
20240420224453 49 334 0.0 11.0 0.00 0.00 0.00 38 1022.4
20240420224418 49 313 0.0 11.0 0.00 0.00 0.00 37 1022.4
20240420224345 49 296 0.0 10.0 0.00 0.00 0.00 38 1022.4
20240420224313 49 306 0.0 10.0 0.00 0.00 0.00 37 1022.4
20240420224012 49 276 0.0 10.0 0.00 0.00 0.00 36 1022.3
20240420223911 50 295 0.0 10.0 0.00 0.00 0.00 36 1022.4
20240420223812 49 281 0.0 10.0 0.00 0.00 0.00 38 1022.4
20240420223713 49 330 0.0 10.0 0.00 0.00 0.00 39 1022.4
20240420223613 49 268 0.0 10.0 0.00 0.00 0.00 37 1022.4
20240420223549 49 228 0.0 10.0 0.00 0.00 0.00 37 1022.5
20240420223512 48 261 0.0 10.0 0.00 0.00 0.00 38 1022.5
20240420223426 48 7 0.0 10.0 0.00 0.00 0.00 38 1022.5
20240420223419 48 261 0.0 10.0 0.00 0.00 0.00 38 1022.5
20240420223356 48 261 0.0 10.0 0.00 0.00 0.00 38 1022.6
20240420223334 48 261 0.0 10.0 0.00 0.00 0.00 38 1022.5
20240420223309 48 285 0.0 10.0 0.00 0.00 0.00 38 1022.5
20240420223007 48 300 0.0 10.0 0.00 0.00 0.00 38 1022.6
20240420222906 48 275 0.0 10.0 0.00 0.00 0.00 38 1022.5
20240420222805 48 271 0.0 10.0 0.00 0.00 0.00 38 1022.5
20240420222703 48 252 0.0 10.0 0.00 0.00 0.00 41 1022.5
20240420222604 48 305 0.0 10.0 0.00 0.00 0.00 42 1022.6
20240420222545 48 237 0.0 10.0 0.00 0.00 0.00 42 1022.6
20240420222504 48 261 0.0 10.0 0.00 0.00 0.00 38 1022.6
20240420222403 48 286 0.0 10.0 0.00 0.00 0.00 39 1022.6
20240420222303 47 237 0.0 10.0 0.00 0.00 0.00 42 1022.5
20240420222203 47 272 0.0 10.0 0.00 0.00 0.00 40 1022.5
20240420222100 47 251 0.0 10.0 0.00 0.00 0.00 39 1022.6
20240420222047 47 259 0.0 10.0 0.00 0.00 0.00 39 1022.6
20240420222001 47 314 0.0 10.0 0.00 0.00 0.00 39 1022.6
20240420221835 47 283 0.0 9.0 0.00 0.00 0.00 39 1022.5
20240420221735 47 286 0.0 9.0 0.00 0.00 0.00 40 1022.6
20240420221633 47 299 0.0 9.0 0.00 0.00 0.00 40 1022.6
20240420221544 47 264 0.0 9.0 0.00 0.00 0.00 41 1022.5
20240420221533 47 231 0.0 9.0 0.00 0.00 0.00 41 1022.5
20240420221431 47 265 0.0 9.0 0.00 0.00 0.00 39 1022.6
20240420221333 47 266 0.0 9.0 0.00 0.00 0.00 40 1022.6
20240420221231 47 275 0.0 9.0 0.00 0.00 0.00 40 1022.6
20240420221131 47 255 0.0 9.0 0.00 0.00 0.00 41 1022.7
20240420221041 47 285 0.0 9.0 0.00 0.00 0.00 40 1022.7
20240420221026 47 282 0.0 9.0 0.00 0.00 0.00 40 1022.7
20240420220922 47 231 0.0 6.0 0.00 0.00 0.00 41 1022.7
20240420220820 47 264 0.0 6.0 0.00 0.00 0.00 42 1022.7
20240420220721 47 275 0.0 6.0 0.00 0.00 0.00 41 1022.7
20240420220615 47 38 0.0 6.0 0.00 0.00 0.00 41 1022.8
20240420220539 47 272 0.0 6.0 0.00 0.00 0.00 41 1022.8
20240420220515 47 307 0.0 6.0 0.00 0.00 0.00 41 1022.8
20240420220407 47 300 0.0 6.0 0.00 0.00 0.00 41 1022.8
20240420220303 47 272 0.0 5.0 0.00 0.00 0.00 42 1022.8
20240420220203 47 257 0.0 5.0 0.00 0.00 0.00 42 1022.7
20240420220103 47 224 0.0 5.0 0.00 0.00 0.00 41 1022.8
20240420220036 47 278 0.0 5.0 0.00 0.00 0.00 41 1022.8
20240420220001 47 278 0.0 5.0 0.00 0.00 0.00 42 1022.7
20240420215901 47 265 0.0 5.0 0.00 0.00 0.00 43 1022.9
20240420215800 48 306 0.0 5.0 0.00 0.00 0.00 43 1022.7
20240420215657 48 285 0.0 4.0 0.00 0.00 0.00 43 1022.8
20240420215601 47 16 0.0 10.0 0.00 0.00 0.00 41 1022.8
20240420215536 47 4 0.0 10.0 0.00 0.00 0.00 41 1022.8
20240420215453 47 347 0.0 10.0 0.00 0.00 0.00 41 1022.7
20240420215352 48 298 0.0 10.0 0.00 0.00 0.00 43 1022.9
20240420215253 48 276 0.0 10.0 0.00 0.00 0.00 44 1022.8
20240420215151 48 234 0.0 10.0 0.00 0.00 0.00 43 1022.8
20240420215051 48 275 0.0 10.0 0.00 0.00 0.00 42 1022.8
20240420215038 48 261 0.0 10.0 0.00 0.00 0.00 42 1022.8
20240420214948 48 0 0.0 13.0 0.00 0.00 0.00 44 1022.8
20240420214846 48 248 0.0 13.0 0.00 0.00 0.00 46 1022.9
20240420214745 48 275 0.0 13.0 0.00 0.00 0.00 45 1022.8
20240420214643 47 302 0.0 14.0 0.00 0.00 0.00 43 1022.8
20240420214547 47 0 0.0 14.0 0.00 0.00 0.00 44 1022.9
20240420214535 47 31 0.0 14.0 0.00 0.00 0.00 44 1022.9
20240420214522 47 290 0.0 14.0 0.00 0.00 0.00 45 1022.7
20240420214456 47 1 0.0 14.0 0.00 0.00 0.00 44 1022.8
20240420214427 47 355 0.0 14.0 0.00 0.00 0.00 45 1022.8
20240420214356 47 317 0.0 14.0 0.00 0.00 0.00 44 1022.7
20240420214325 47 299 0.0 14.0 0.00 0.00 0.00 45 1022.6
20240420214034 47 300 0.0 14.0 0.00 0.00 0.00 45 1022.7
20240420213932 47 289 0.0 14.0 0.00 0.00 0.00 45 1022.7
20240420213832 47 261 0.0 14.0 0.00 0.00 0.00 44 1022.7
20240420213732 48 278 0.0 10.0 0.00 0.00 0.00 44 1022.8
20240420213633 48 278 0.0 10.0 0.00 0.00 0.00 45 1022.7
20240420213538 48 295 0.0 10.0 0.00 0.00 0.00 47 1022.7
20240420213533 48 316 0.0 10.0 0.00 0.00 0.00 47 1022.7
20240420213517 47 285 0.0 10.0 0.00 0.00 0.00 46 1022.8
20240420213448 48 264 0.0 10.0 0.00 0.00 0.00 49 1022.8
20240420213418 47 234 0.0 10.0 0.00 0.00 0.00 49 1022.8
20240420213342 47 261 0.0 10.0 0.00 0.00 0.00 47 1022.7
20240420213311 47 278 0.0 10.0 0.00 0.00 0.00 46 1022.8
20240420213025 47 281 0.0 10.0 0.00 0.00 0.00 46 1022.8
20240420212925 47 254 0.0 10.0 0.00 0.00 0.00 46 1022.8
20240420212824 47 272 0.0 6.0 0.00 0.00 0.00 47 1022.8
20240420212720 47 351 0.0 6.0 0.00 0.00 0.00 47 1022.8
20240420212619 47 348 0.0 6.0 0.00 0.00 0.00 48 1022.8
20240420212548 47 290 0.0 5.0 0.00 0.00 0.00 48 1023.0
20240420212533 47 355 0.0 6.0 0.00 0.00 0.00 47 1022.8
20240420212522 47 353 0.0 6.0 0.00 0.00 0.00 47 1022.8
20240420212447 47 257 0.0 6.0 0.00 0.00 0.00 46 1022.8
20240420212413 47 269 0.0 5.0 0.00 0.00 0.00 46 1022.9
20240420212338 47 296 0.0 5.0 0.00 0.00 0.00 48 1022.9
20240420212306 47 293 0.0 5.0 0.00 0.00 0.00 48 1023.0
20240420212010 47 279 0.0 5.0 0.00 0.00 0.00 47 1023.0
20240420211908 47 320 0.0 5.0 0.00 0.00 0.00 47 1022.9
20240420211806 47 264 0.0 5.0 0.00 0.00 0.00 49 1022.9
20240420211705 47 312 0.0 5.0 0.00 0.00 0.00 47 1023.0
20240420211603 47 281 0.0 5.0 0.00 0.00 0.00 49 1022.9
20240420211530 47 281 0.0 5.0 0.00 0.00 0.00 49 1022.9
20240420211521 47 274 0.0 5.0 0.00 0.00 0.00 48 1023.0
20240420211510 47 251 0.0 5.0 0.00 0.00 0.00 48 1022.9
20240420211436 47 286 0.0 5.0 0.00 0.00 0.00 47 1022.9
20240420211407 47 303 0.0 5.0 0.00 0.00 0.00 50 1023.0
20240420211333 47 281 0.0 5.0 0.00 0.00 0.00 49 1022.9
20240420211303 47 293 0.0 5.0 0.00 0.00 0.00 48 1023.0
20240420211029 47 248 0.0 5.0 0.00 0.00 0.00 47 1023.0
20240420210925 48 262 0.0 5.0 0.00 0.00 0.00 49 1023.0
20240420210823 48 248 0.0 4.0 0.00 0.00 0.00 47 1023.0
20240420210723 48 317 0.0 6.0 0.00 0.00 0.00 48 1023.0
20240420210622 48 327 0.0 12.0 0.00 0.00 0.00 49 1023.0
20240420210532 48 329 0.0 12.0 0.00 0.00 0.00 49 1023.0
20240420210526 48 272 0.0 12.0 0.00 0.00 0.00 52 1023.1
20240420210515 47 283 0.0 13.0 0.00 0.00 0.00 51 1023.3
20240420210508 47 282 0.0 13.0 0.00 0.00 0.00 51 1023.3
20240420210422 48 252 0.0 13.0 0.00 0.00 0.00 52 1023.1
20240420210318 47 223 0.0 13.0 0.00 0.00 0.00 50 1023.1
20240420210011 46 354 0.0 13.0 0.00 0.00 0.00 52 1023.3
20240420205909 46 299 0.0 13.0 0.00 0.00 0.00 50 1023.1
20240420205808 46 275 0.0 13.0 0.00 0.00 0.00 51 1023.3
20240420205704 46 245 0.0 13.0 0.00 0.00 0.00 50 1023.3
20240420205611 46 228 0.0 13.0 0.00 0.00 0.00 50 1023.3
20240420205531 46 230 0.0 13.0 0.00 0.00 0.00 50 1023.3
20240420205514 47 295 0.0 9.0 0.00 0.00 0.00 50 1023.3
20240420205453 47 298 0.0 6.0 0.00 0.00 0.00 49 1023.4
20240420205415 47 255 0.0 9.0 0.00 0.00 0.00 48 1023.3
20240420205317 47 243 0.0 5.0 0.00 0.00 0.00 50 1023.4
20240420205006 47 248 0.0 10.0 0.00 0.00 0.00 51 1023.3
20240420204902 47 331 0.0 10.0 0.00 0.00 0.00 52 1023.4
20240420204802 47 41 0.0 10.0 0.00 0.00 0.00 50 1023.4
20240420204701 47 55 0.0 10.0 0.00 0.00 0.00 50 1023.4
20240420204603 47 337 0.0 10.0 0.00 0.00 0.00 52 1023.5
20240420204531 47 317 0.0 10.0 0.00 0.00 0.00 52 1023.5
20240420204504 46 321 0.0 10.0 0.00 0.00 0.00 50 1023.4
20240420204448 46 306 0.0 10.0 0.00 0.00 0.00 50 1023.6
20240420204442 46 290 0.0 9.0 0.00 0.00 0.00 50 1023.6
20240420204405 47 0 0.0 10.0 0.00 0.00 0.00 53 1023.6
20240420204304 46 295 0.0 10.0 0.00 0.00 0.00 50 1023.6
20240420203951 46 275 0.0 9.0 0.00 0.00 0.00 50 1023.5
20240420203849 46 310 0.0 9.0 0.00 0.00 0.00 50 1023.5
20240420203749 46 278 0.0 9.0 0.00 0.00 0.00 51 1023.6
20240420203616 47 278 0.0 10.0 0.00 0.00 0.00 50 1023.6
20240420203530 47 268 0.0 10.0 0.00 0.00 0.00 53 1023.6
20240420203514 47 289 0.0 11.0 0.00 0.00 0.00 53 1023.7
20240420203459 47 283 0.0 11.0 0.00 0.00 0.00 53 1023.8
20240420203453 46 290 0.0 11.0 0.00 0.00 0.00 54 1023.9
20240420203404 47 312 0.0 11.0 0.00 0.00 0.00 53 1023.7
20240420203303 47 259 0.0 11.0 0.00 0.00 0.00 55 1023.8
20240420203011 46 295 0.0 11.0 0.00 0.00 0.00 54 1023.9
20240420202913 45 347 0.0 11.0 0.00 0.00 0.00 54 1023.9
20240420202812 45 274 0.0 11.0 0.00 0.00 0.00 52 1023.8
20240420202710 45 272 0.0 11.0 0.00 0.00 0.00 52 1023.8
20240420202610 45 245 0.0 11.0 0.00 0.00 0.00 52 1023.8
20240420202530 45 266 0.0 11.0 0.00 0.00 0.00 52 1024.0
20240420202509 45 262 0.0 11.0 0.00 0.00 0.00 52 1024.0
20240420202410 45 274 0.0 10.0 0.00 0.00 0.00 53 1023.9
20240420202310 45 331 0.0 7.0 0.00 0.00 0.00 53 1024.0
20240420202210 44 261 0.0 7.0 0.00 0.00 0.00 54 1023.9
20240420202110 44 278 0.0 7.0 0.00 0.00 0.00 56 1023.9
20240420202031 44 271 0.0 5.0 0.00 0.00 0.00 54 1023.9
20240420202010 44 233 0.0 5.0 0.00 0.00 0.00 54 1024.1
20240420201909 44 278 0.0 4.0 0.00 0.00 0.00 54 1024.1
20240420201807 44 243 0.0 7.0 0.00 0.00 0.00 56 1024.1
20240420201704 44 250 0.0 17.0 0.00 0.00 0.00 56 1024.0
20240420201604 44 285 0.0 17.0 0.00 0.00 0.00 56 1024.1
20240420201529 44 338 0.0 17.0 0.00 0.00 0.00 58 1024.1
20240420201506 44 341 0.0 17.0 0.00 0.00 0.00 58 1024.1
20240420201404 43 344 0.0 17.0 0.00 0.00 0.00 59 1024.1
20240420201304 43 247 0.0 17.0 0.00 0.00 0.00 56 1024.1
20240420201203 43 254 0.0 17.0 0.00 0.00 0.00 57 1024.1
20240420201104 43 283 0.0 17.0 0.00 0.00 0.00 57 1024.1
20240420201032 43 283 0.0 17.0 0.00 0.00 0.00 57 1024.1
20240420200932 43 283 0.0 17.0 0.00 0.00 0.00 57 1024.2
20240420200825 43 227 0.0 17.0 0.00 0.00 0.00 57 1024.1
20240420200722 43 258 0.0 16.0 0.00 0.00 0.00 58 1024.1
20240420200620 43 265 0.0 16.0 0.00 0.00 0.00 57 1024.0
20240420200525 43 271 0.0 16.0 0.00 0.00 0.00 57 1024.1
20240420200514 43 281 0.0 16.0 0.00 0.00 0.00 56 1024.1
20240420200430 43 264 0.0 16.0 0.00 0.00 0.00 56 1024.2
20240420200317 43 262 0.0 12.0 0.00 0.00 0.00 57 1024.2
20240420200216 43 299 0.0 12.0 0.00 0.00 0.00 57 1024.2
20240420200113 43 317 0.0 12.0 0.00 0.00 0.00 56 1024.2
20240420200014 43 324 0.0 12.0 0.00 0.00 0.00 56 1024.2
20240420195914 44 292 0.0 12.0 0.00 0.00 0.00 57 1024.2
20240420195812 43 271 0.0 6.0 0.00 0.00 0.00 57 1024.3
20240420195712 43 265 0.0 6.0 0.00 0.00 0.00 61 1024.3
20240420195614 42 286 0.0 6.0 0.00 0.00 0.00 58 1024.4
20240420195513 42 269 0.0 6.0 0.00 0.00 0.00 57 1024.4
20240420195414 42 324 0.0 6.0 0.00 0.00 0.00 58 1024.4
20240420195314 43 269 0.0 5.0 0.00 0.00 0.00 59 1024.3
20240420195213 43 276 0.0 7.0 0.00 0.00 0.00 57 1024.3
20240420195111 43 257 0.0 7.0 0.00 0.00 0.00 58 1024.4
20240420195012 43 254 0.0 7.0 0.00 0.00 0.00 57 1024.4
20240420194947 43 262 0.0 7.0 0.00 0.00 0.00 58 1024.4
20240420194927 43 293 0.0 7.0 0.00 0.00 0.00 56 1024.3
20240420194856 43 283 0.0 7.0 0.00 0.00 0.00 58 1024.4
20240420194828 44 0 0.0 7.0 0.00 0.00 0.00 59 1024.4
20240420194755 43 300 0.0 7.0 0.00 0.00 0.00 57 1024.4
20240420194723 43 262 0.0 7.0 0.00 0.00 0.00 58 1024.4
20240420194414 43 305 0.0 7.0 0.00 0.00 0.00 58 1024.4
20240420194311 43 271 0.0 7.0 0.00 0.00 0.00 60 1024.4
20240420194212 43 310 0.0 9.0 0.00 0.00 0.00 58 1024.4
20240420194112 42 264 0.0 9.0 0.00 0.00 0.00 58 1024.4
20240420194013 42 321 0.0 9.0 0.00 0.00 0.00 59 1024.6
20240420193915 42 295 0.0 9.0 0.00 0.00 0.00 60 1024.5
20240420193812 42 258 0.0 9.0 0.00 0.00 0.00 59 1024.5
20240420193712 42 275 0.0 9.0 0.00 0.00 0.00 59 1024.6
20240420193612 42 258 0.0 9.0 0.00 0.00 0.00 59 1024.5
20240420193511 42 278 0.0 9.0 0.00 0.00 0.00 58 1024.5
20240420193414 43 209 0.0 9.0 0.00 0.00 0.00 58 1024.6
20240420193311 43 251 0.0 9.0 0.00 0.00 0.00 59 1024.6
20240420193213 43 295 0.0 7.0 0.00 0.00 0.00 61 1024.6
20240420193110 42 309 0.0 7.0 0.00 0.00 0.00 59 1024.6
20240420193011 42 274 0.0 7.0 0.00 0.00 0.00 59 1024.7
20240420192912 42 305 0.0 7.0 0.00 0.00 0.00 58 1024.8
20240420192813 42 278 0.0 6.0 0.00 0.00 0.00 57 1024.8
20240420192711 42 357 0.0 5.0 0.00 0.00 0.00 59 1024.7
20240420192613 42 295 0.0 5.0 0.00 0.00 0.00 59 1024.8
20240420192512 43 241 0.0 5.0 0.00 0.00 0.00 59 1024.9
20240420192415 42 264 0.0 5.0 0.00 0.00 0.00 62 1024.8
20240420192311 42 199 0.0 10.0 0.00 0.00 0.00 61 1024.8
20240420192212 42 290 0.0 10.0 0.00 0.00 0.00 61 1024.7
20240420192111 41 343 0.0 10.0 0.00 0.00 0.00 60 1024.7
20240420192013 41 272 0.0 10.0 0.00 0.00 0.00 62 1024.8
20240420191914 41 251 0.0 10.0 0.00 0.00 0.00 61 1024.9
20240420191812 41 324 0.0 10.0 0.00 0.00 0.00 65 1024.9
20240420191713 41 292 0.0 10.0 0.00 0.00 0.00 64 1024.9
20240420191615 40 323 0.0 10.0 0.00 0.00 0.00 63 1024.9
20240420191513 40 268 0.0 13.0 0.00 0.00 0.00 62 1025.0
20240420191417 40 245 0.0 13.0 0.00 0.00 0.00 62 1025.0
20240420191311 40 282 0.0 13.0 0.00 0.00 0.00 64 1025.0
20240420191215 40 233 0.0 13.0 0.00 0.00 0.00 63 1024.9
20240420191111 40 265 0.0 13.0 0.00 0.00 0.00 63 1024.9
20240420191012 40 283 0.0 13.0 0.00 0.00 0.00 63 1025.0
20240420190912 40 307 0.0 13.0 0.00 0.00 0.00 62 1025.0
20240420190812 40 317 0.0 13.0 0.00 0.00 0.00 63 1025.0
20240420190712 40 275 0.0 13.0 0.00 0.00 0.00 62 1025.1
20240420190612 40 290 0.0 13.0 0.00 0.00 0.00 63 1025.1
20240420190512 40 257 0.0 7.0 0.00 0.00 0.00 62 1025.0
20240420190414 40 257 0.0 7.0 0.00 0.00 0.00 63 1025.0
20240420190310 40 0 0.0 9.0 0.00 0.00 0.00 62 1025.0
20240420190214 40 298 0.0 9.0 0.00 0.00 0.00 62 1025.0
20240420190110 40 1 0.0 11.0 0.00 0.00 0.00 62 1025.1
20240420190014 40 298 0.0 11.0 0.00 0.00 0.00 63 1025.1
20240420185914 40 275 0.0 11.0 0.00 0.00 0.00 63 1025.1
20240420185813 40 261 0.0 11.0 0.00 0.00 0.00 64 1025.1
20240420185710 40 290 0.0 11.0 0.00 0.00 0.00 64 1025.1
20240420185612 40 285 0.0 11.0 0.00 0.00 0.00 65 1025.1
20240420185511 39 285 0.0 11.0 0.00 0.00 0.00 64 1025.1
20240420185417 39 245 0.0 11.0 0.00 0.00 0.00 64 1025.1
20240420185311 39 272 0.0 11.0 0.00 0.00 0.00 64 1025.1
20240420185214 39 278 0.0 11.0 0.00 0.00 0.00 64 1025.1
20240420185111 39 310 0.0 10.0 0.00 0.00 0.00 64 1025.2
20240420185011 39 278 0.0 7.0 0.00 0.00 0.00 65 1025.1
20240420184916 39 261 0.0 7.0 0.00 0.00 0.00 66 1025.2
20240420184813 39 289 0.0 7.0 0.00 0.00 0.00 65 1025.1
20240420184710 39 266 0.0 7.0 0.00 0.00 0.00 64 1025.1
20240420184614 39 276 0.0 7.0 0.00 0.00 0.00 64 1025.2
20240420184511 39 234 0.0 6.0 0.00 0.00 0.00 64 1025.2
20240420184416 39 264 0.0 6.0 0.00 0.00 0.00 63 1025.2
20240420184311 39 254 0.0 3.0 0.00 0.00 0.00 63 1025.2
20240420184212 39 285 0.0 3.0 0.00 0.00 0.00 63 1025.2
20240420184112 39 261 0.0 3.0 0.00 0.00 0.00 62 1025.3
20240420184012 39 272 0.0 3.0 0.00 0.00 0.00 63 1025.3
20240420183913 40 244 0.0 3.0 0.00 0.00 0.00 62 1025.2
20240420183813 40 233 0.0 3.0 0.00 0.00 0.00 62 1025.3
20240420183712 40 298 0.0 3.0 0.00 0.00 0.00 63 1025.3
20240420183612 40 320 0.0 3.0 0.00 0.00 0.00 63 1025.4
20240420183512 40 283 0.0 3.0 0.00 0.00 0.00 64 1025.4
20240420183416 40 281 0.0 5.0 0.00 0.00 0.00 64 1025.3
20240420183312 40 272 0.0 5.0 0.00 0.00 0.00 63 1025.3
20240420183212 39 351 0.0 5.0 0.00 0.00 0.00 64 1025.3
20240420183112 39 281 0.0 13.0 0.00 0.00 0.00 64 1025.4
20240420183013 39 282 0.0 13.0 0.00 0.00 0.00 65 1025.4
20240420182914 39 258 0.0 13.0 0.00 0.00 0.00 65 1025.3
20240420182812 39 283 0.0 13.0 0.00 0.00 0.00 64 1025.5
20240420182741 39 302 0.0 13.0 0.00 0.00 0.00 64 1025.5
20240420182646 39 292 0.0 13.0 0.00 0.00 0.00 65 1025.5
20240420182547 38 233 0.0 13.0 0.00 0.00 0.00 64 1025.4
20240420182511 38 233 0.0 13.0 0.00 0.00 0.00 64 1025.4
20240420182446 38 289 0.0 13.0 0.00 0.00 0.00 64 1025.4
20240420182344 38 269 0.0 13.0 0.00 0.00 0.00 64 1025.4
20240420182243 38 250 0.0 13.0 0.00 0.00 0.00 63 1025.5
20240420182146 38 275 0.0 14.0 0.00 0.00 0.00 62 1025.5
20240420182047 39 265 0.0 14.0 0.00 0.00 0.00 62 1025.5
20240420182012 39 265 0.0 14.0 0.00 0.00 0.00 62 1025.5
20240420181946 39 278 0.0 14.0 0.00 0.00 0.00 62 1025.4
20240420181846 39 288 0.0 14.0 0.00 0.00 0.00 63 1025.5
20240420181742 39 288 0.0 14.0 0.00 0.00 0.00 63 1025.4
20240420181644 39 265 0.0 14.0 0.00 0.00 0.00 63 1025.5
20240420181549 39 264 0.0 14.0 0.00 0.00 0.00 63 1025.4
20240420181513 39 264 0.0 14.0 0.00 0.00 0.00 63 1025.4
20240420181506 39 261 0.0 14.0 0.00 0.00 0.00 63 1025.5
20240420181450 39 296 0.0 9.0 0.00 0.00 0.00 63 1025.4
20240420181350 39 224 0.0 14.0 0.00 0.00 0.00 62 1025.5
20240420181258 40 290 0.0 9.0 0.00 0.00 0.00 64 1025.5
20240420180945 39 283 0.0 6.0 0.00 0.00 0.00 63 1025.4
20240420180841 39 258 0.0 6.0 0.00 0.00 0.00 65 1025.5
20240420180744 39 269 0.0 6.0 0.00 0.00 0.00 66 1025.6
20240420180644 39 254 0.0 4.0 0.00 0.00 0.00 65 1025.6
20240420180549 39 272 0.0 4.0 0.00 0.00 0.00 64 1025.6
20240420180511 39 272 0.0 4.0 0.00 0.00 0.00 64 1025.6
20240420180449 39 331 0.0 4.0 0.00 0.00 0.00 65 1025.5
20240420180426 38 314 0.0 4.0 0.00 0.00 0.00 65 1025.7
20240420180348 39 292 0.0 4.0 0.00 0.00 0.00 64 1025.5
20240420180256 38 261 0.0 4.0 0.00 0.00 0.00 65 1025.7
20240420175945 38 231 0.0 4.0 0.00 0.00 0.00 66 1025.7
20240420175844 38 288 0.0 4.0 0.00 0.00 0.00 66 1025.6
20240420175744 38 286 0.0 4.0 0.00 0.00 0.00 67 1025.8
20240420175643 38 290 0.0 4.0 0.00 0.00 0.00 66 1025.7
20240420175547 38 240 0.0 4.0 0.00 0.00 0.00 66 1025.7
20240420175512 38 240 0.0 4.0 0.00 0.00 0.00 66 1025.7
20240420175449 38 355 0.0 4.0 0.00 0.00 0.00 66 1025.7
20240420175425 38 262 0.0 11.0 0.00 0.00 0.00 66 1025.8
20240420175348 38 343 0.0 4.0 0.00 0.00 0.00 66 1025.8
20240420175255 38 283 0.0 11.0 0.00 0.00 0.00 66 1025.7
20240420174942 38 268 0.0 11.0 0.00 0.00 0.00 67 1025.7
20240420174812 38 313 0.0 11.0 0.00 0.00 0.00 68 1025.8
20240420174710 38 321 0.0 11.0 0.00 0.00 0.00 68 1025.8
20240420174612 38 316 0.0 11.0 0.00 0.00 0.00 68 1025.7
20240420174511 37 261 0.0 11.0 0.00 0.00 0.00 69 1025.7
20240420174415 37 295 0.0 11.0 0.00 0.00 0.00 69 1025.8
20240420174312 37 276 0.0 11.0 0.00 0.00 0.00 69 1025.8
20240420174212 37 268 0.0 4.0 0.00 0.00 0.00 69 1025.8
20240420174112 37 279 0.0 4.0 0.00 0.00 0.00 69 1025.8
20240420174014 37 240 0.0 6.0 0.00 0.00 0.00 69 1025.8
20240420173913 37 333 0.0 6.0 0.00 0.00 0.00 69 1025.8
20240420173812 37 271 0.0 6.0 0.00 0.00 0.00 70 1025.8
20240420173711 37 289 0.0 6.0 0.00 0.00 0.00 70 1025.8
20240420173612 37 275 0.0 6.0 0.00 0.00 0.00 70 1025.9
20240420173512 37 244 0.0 6.0 0.00 0.00 0.00 69 1025.9
20240420173413 37 262 0.0 6.0 0.00 0.00 0.00 68 1025.9
20240420173310 37 248 0.0 10.0 0.00 0.00 0.00 68 1025.9
20240420173213 37 290 0.0 10.0 0.00 0.00 0.00 68 1026.0
20240420173111 37 254 0.0 10.0 0.00 0.00 0.00 68 1025.9
20240420173012 37 272 0.0 10.0 0.00 0.00 0.00 68 1025.9
20240420172913 37 283 0.0 10.0 0.00 0.00 0.00 68 1025.9
20240420172812 37 289 0.0 10.0 0.00 0.00 0.00 68 1025.9
20240420172711 37 286 0.0 10.0 0.00 0.00 0.00 67 1025.9
20240420172613 37 243 0.0 10.0 0.00 0.00 0.00 67 1026.0
20240420172510 37 248 0.0 10.0 0.00 0.00 0.00 67 1026.0
20240420172413 37 290 0.0 10.0 0.00 0.00 0.00 68 1026.0
20240420172312 37 271 0.0 7.0 0.00 0.00 0.00 68 1025.9
20240420172213 37 258 0.0 7.0 0.00 0.00 0.00 68 1026.0
20240420172112 37 265 0.0 7.0 0.00 0.00 0.00 69 1025.9
20240420172013 37 254 0.0 7.0 0.00 0.00 0.00 69 1026.0
20240420171913 37 261 0.0 7.0 0.00 0.00 0.00 69 1025.9
20240420171812 37 237 0.0 7.0 0.00 0.00 0.00 69 1025.9
20240420171712 36 272 0.0 7.0 0.00 0.00 0.00 70 1025.9
20240420171613 36 0 0.0 7.0 0.00 0.00 0.00 70 1026.0
20240420171511 36 262 0.0 7.0 0.00 0.00 0.00 70 1025.9
20240420171414 36 290 0.0 7.0 0.00 0.00 0.00 70 1026.0
20240420171310 36 0 0.0 11.0 0.00 0.00 0.00 70 1026.0
20240420171214 36 276 0.0 11.0 0.00 0.00 0.00 70 1026.0
20240420171112 36 264 0.0 11.0 0.00 0.00 0.00 70 1026.1
20240420171012 36 278 0.0 11.0 0.00 0.00 0.00 70 1026.0
20240420170915 36 258 0.0 11.0 0.00 0.00 0.00 70 1026.1
20240420170812 36 214 0.0 11.0 0.00 0.00 0.00 69 1026.0
20240420170712 36 261 0.0 11.0 0.00 0.00 0.00 69 1026.1
20240420170613 36 271 0.0 11.0 0.00 0.00 0.00 68 1026.1
20240420170511 36 281 0.0 11.0 0.00 0.00 0.00 68 1026.1
20240420170413 36 268 0.0 11.0 0.00 0.00 0.00 68 1026.0
20240420170312 36 283 0.0 11.0 0.00 0.00 0.00 69 1026.0
20240420170211 36 355 0.0 11.0 0.00 0.00 0.00 68 1026.0
20240420170112 36 269 0.0 11.0 0.00 0.00 0.00 68 1026.0
20240420170017 36 259 0.0 11.0 0.00 0.00 0.00 68 1026.1
20240420170013 36 262 0.0 11.0 0.00 0.00 0.00 68 1026.1
20240420165914 36 262 0.0 11.0 0.00 0.00 0.00 67 1026.1
20240420165813 36 275 0.0 11.0 0.00 0.00 0.00 67 1026.0
20240420165711 36 285 0.0 11.0 0.00 0.00 0.00 67 1026.0
20240420165612 36 306 0.0 6.0 0.00 0.00 0.00 66 1026.0
20240420165511 36 272 0.0 6.0 0.00 0.00 0.00 66 1026.1
20240420165428 36 275 0.0 7.0 0.00 0.00 0.00 66 1026.1
20240420165420 36 272 0.0 7.0 0.00 0.00 0.00 66 1026.0
20240420165358 36 272 0.0 7.0 0.00 0.00 0.00 66 1026.1
20240420165332 36 303 0.0 7.0 0.00 0.00 0.00 66 1026.2
20240420165304 36 264 0.0 7.0 0.00 0.00 0.00 66 1026.1
20240420165231 36 275 0.0 7.0 0.00 0.00 0.00 66 1026.1
20240420164944 36 272 0.0 12.0 0.00 0.00 0.00 66 1026.1
20240420164928 36 319 0.0 7.0 0.00 0.00 0.00 66 1026.2
20240420164901 36 259 0.0 7.0 0.00 0.00 0.00 66 1026.1
20240420164831 36 279 0.0 7.0 0.00 0.00 0.00 66 1026.2
20240420164802 36 265 0.0 7.0 0.00 0.00 0.00 65 1026.1
20240420164726 36 272 0.0 12.0 0.00 0.00 0.00 66 1026.1
20240420164413 36 0 0.0 12.0 0.00 0.00 0.00 66 1026.1
20240420164311 36 314 0.0 12.0 0.00 0.00 0.00 66 1026.2
20240420164214 36 317 0.0 12.0 0.00 0.00 0.00 66 1026.1
20240420164111 36 290 0.0 12.0 0.00 0.00 0.00 66 1026.2
20240420164017 36 285 0.0 12.0 0.00 0.00 0.00 67 1026.2
20240420164008 36 285 0.0 12.0 0.00 0.00 0.00 67 1026.1
20240420163942 36 286 0.0 9.0 0.00 0.00 0.00 66 1026.2
20240420163925 36 0 0.0 12.0 0.00 0.00 0.00 67 1026.1
20240420163854 36 309 0.0 12.0 0.00 0.00 0.00 67 1026.1
20240420163825 36 299 0.0 12.0 0.00 0.00 0.00 66 1026.2
20240420163757 36 272 0.0 12.0 0.00 0.00 0.00 66 1026.2
20240420163723 36 286 0.0 9.0 0.00 0.00 0.00 66 1026.2
20240420163413 36 272 0.0 9.0 0.00 0.00 0.00 66 1026.2
20240420163310 36 219 0.0 9.0 0.00 0.00 0.00 66 1026.2
20240420163212 36 272 0.0 9.0 0.00 0.00 0.00 66 1026.2
20240420163112 36 299 0.0 4.0 0.00 0.00 0.00 66 1026.3
20240420163015 36 199 0.0 4.0 0.00 0.00 0.00 65 1026.2
20240420163004 36 76 0.0 4.0 0.00 0.00 0.00 65 1026.2
20240420162935 36 7 0.0 2.0 0.00 0.00 0.00 67 1026.3
20240420162922 36 345 0.0 4.0 0.00 0.00 0.00 66 1026.2
20240420162853 36 250 0.0 4.0 0.00 0.00 0.00 66 1026.2
20240420162825 36 257 0.0 1.0 0.00 0.00 0.00 66 1026.3
20240420162757 36 333 0.0 1.0 0.00 0.00 0.00 66 1026.2
20240420162725 36 358 0.0 2.0 0.00 0.00 0.00 67 1026.2
20240420162414 36 330 0.0 2.0 0.00 0.00 0.00 66 1026.3
20240420162310 36 262 0.0 2.0 0.00 0.00 0.00 66 1026.2
20240420162213 36 327 0.0 2.0 0.00 0.00 0.00 66 1026.2
20240420162111 36 327 0.0 2.0 0.00 0.00 0.00 66 1026.2
20240420162020 36 333 0.0 2.0 0.00 0.00 0.00 66 1026.2
20240420162003 36 323 0.0 2.0 0.00 0.00 0.00 66 1026.3
20240420161913 36 255 0.0 2.0 0.00 0.00 0.00 66 1026.3
20240420161813 36 330 0.0 2.0 0.00 0.00 0.00 66 1026.2
20240420161711 36 347 0.0 2.0 0.00 0.00 0.00 66 1026.2
20240420161613 35 281 0.0 2.0 0.00 0.00 0.00 66 1026.2
20240420161517 35 289 0.0 2.0 0.00 0.00 0.00 66 1026.1
20240420161504 35 258 0.0 2.0 0.00 0.00 0.00 66 1026.2
20240420161416 35 193 0.0 2.0 0.00 0.00 0.00 66 1026.2
20240420161312 35 355 0.0 2.0 0.00 0.00 0.00 66 1026.2
20240420161214 35 0 0.0 2.0 0.00 0.00 0.00 66 1026.2
20240420161113 35 286 0.0 3.0 0.00 0.00 0.00 66 1026.1
20240420161007 35 286 0.0 3.0 0.00 0.00 0.00 66 1026.2
20240420160914 35 286 0.0 3.0 0.00 0.00 0.00 66 1026.2
20240420160812 35 300 0.0 3.0 0.00 0.00 0.00 66 1026.2
20240420160711 35 296 0.0 3.0 0.00 0.00 0.00 66 1026.2
20240420160611 35 295 0.0 3.0 0.00 0.00 0.00 66 1026.1
20240420160505 35 317 0.0 3.0 0.00 0.00 0.00 66 1026.2
20240420160432 35 286 0.0 3.0 0.00 0.00 0.00 67 1026.1
20240420160418 35 245 0.0 3.0 0.00 0.00 0.00 66 1026.2
20240420160348 35 282 0.0 3.0 0.00 0.00 0.00 66 1026.1
20240420160321 35 347 0.0 3.0 0.00 0.00 0.00 66 1026.2
20240420160253 35 24 0.0 2.0 0.00 0.00 0.00 67 1026.1
20240420160225 35 0 0.0 3.0 0.00 0.00 0.00 67 1026.1
20240420155912 35 275 0.0 3.0 0.00 0.00 0.00 67 1026.1
20240420155812 35 271 0.0 3.0 0.00 0.00 0.00 68 1026.1
20240420155712 35 312 0.0 3.0 0.00 0.00 0.00 68 1026.1
20240420155611 35 289 0.0 3.0 0.00 0.00 0.00 68 1026.0
20240420155505 35 344 0.0 6.0 0.00 0.00 0.00 68 1026.1
20240420155439 35 305 0.0 7.0 0.00 0.00 0.00 67 1026.1
20240420155423 35 255 0.0 7.0 0.00 0.00 0.00 68 1026.1
20240420155352 35 214 0.0 7.0 0.00 0.00 0.00 68 1026.1
20240420155321 35 269 0.0 7.0 0.00 0.00 0.00 67 1026.1
20240420155252 35 290 0.0 7.0 0.00 0.00 0.00 67 1026.0
20240420155223 35 305 0.0 7.0 0.00 0.00 0.00 67 1025.9
20240420154913 35 305 0.0 7.0 0.00 0.00 0.00 67 1026.1
20240420154812 35 231 0.0 7.0 0.00 0.00 0.00 68 1026.0
20240420154711 35 293 0.0 7.0 0.00 0.00 0.00 68 1026.0
20240420154613 35 293 0.0 7.0 0.00 0.00 0.00 68 1026.0
20240420154514 35 279 0.0 7.0 0.00 0.00 0.00 68 1026.0
20240420154504 35 279 0.0 7.0 0.00 0.00 0.00 68 1025.9
20240420154432 34 251 0.0 3.0 0.00 0.00 0.00 69 1026.0
20240420154418 35 337 0.0 3.0 0.00 0.00 0.00 68 1025.9
20240420154348 35 310 0.0 3.0 0.00 0.00 0.00 68 1026.0
20240420154319 35 281 0.0 3.0 0.00 0.00 0.00 69 1026.0
20240420154250 35 264 0.0 3.0 0.00 0.00 0.00 69 1025.9
20240420154220 34 338 0.0 3.0 0.00 0.00 0.00 69 1026.0
20240420153912 34 338 0.0 3.0 0.00 0.00 0.00 68 1026.0
20240420153811 34 281 0.0 3.0 0.00 0.00 0.00 69 1026.0
20240420153710 34 298 0.0 2.0 0.00 0.00 0.00 69 1026.1
20240420153612 34 281 0.0 2.0 0.00 0.00 0.00 69 1026.0
20240420153503 34 289 0.0 2.0 0.00 0.00 0.00 69 1026.0
20240420153412 34 314 0.0 10.0 0.00 0.00 0.00 69 1026.0
20240420153311 34 279 0.0 10.0 0.00 0.00 0.00 69 1025.9
20240420153212 34 274 0.0 10.0 0.00 0.00 0.00 69 1025.9
20240420153110 34 274 0.0 10.0 0.00 0.00 0.00 69 1026.0
20240420153013 34 279 0.0 10.0 0.00 0.00 0.00 69 1026.0
20240420152959 34 279 0.0 10.0 0.00 0.00 0.00 69 1026.0
20240420152913 34 334 0.0 10.0 0.00 0.00 0.00 69 1026.0
20240420152810 34 282 0.0 10.0 0.00 0.00 0.00 69 1026.0
20240420152712 34 295 0.0 10.0 0.00 0.00 0.00 68 1026.0
20240420152611 34 300 0.0 10.0 0.00 0.00 0.00 68 1026.0
20240420152507 34 275 0.0 10.0 0.00 0.00 0.00 68 1026.0
20240420152458 34 275 0.0 10.0 0.00 0.00 0.00 69 1026.0
20240420152408 34 266 0.0 5.0 0.00 0.00 0.00 68 1026.0
20240420152304 34 338 0.0 5.0 0.00 0.00 0.00 68 1026.0
20240420152203 34 278 0.0 5.0 0.00 0.00 0.00 68 1026.0
20240420152102 34 319 0.0 5.0 0.00 0.00 0.00 68 1026.0
20240420152007 34 244 0.0 5.0 0.00 0.00 0.00 68 1026.0
20240420151959 34 302 0.0 5.0 0.00 0.00 0.00 69 1026.0
20240420151905 34 279 0.0 5.0 0.00 0.00 0.00 69 1026.0
20240420151805 34 279 0.0 5.0 0.00 0.00 0.00 69 1026.1
20240420151703 34 279 0.0 5.0 0.00 0.00 0.00 69 1026.1
20240420151546 34 279 0.0 5.0 0.00 0.00 0.00 69 1026.0
20240420151455 34 266 0.0 4.0 0.00 0.00 0.00 69 1026.0
20240420151446 34 255 0.0 4.0 0.00 0.00 0.00 69 1026.0
20240420151342 34 275 0.0 3.0 0.00 0.00 0.00 69 1025.9
20240420151242 34 257 0.0 3.0 0.00 0.00 0.00 69 1026.0
20240420151140 34 286 0.0 3.0 0.00 0.00 0.00 69 1026.0
20240420151037 34 271 0.0 3.0 0.00 0.00 0.00 69 1026.0
20240420150953 34 268 0.0 3.0 0.00 0.00 0.00 69 1026.0
20240420150935 34 285 0.0 3.0 0.00 0.00 0.00 69 1026.0
20240420150831 34 288 0.0 3.0 0.00 0.00 0.00 69 1026.0
20240420150730 34 338 0.0 3.0 0.00 0.00 0.00 68 1026.0
20240420150630 34 255 0.0 3.0 0.00 0.00 0.00 68 1025.9
20240420150530 34 48 0.0 5.0 0.00 0.00 0.00 69 1026.0
20240420150452 34 0 0.0 5.0 0.00 0.00 0.00 69 1026.0
20240420150427 34 299 0.0 5.0 0.00 0.00 0.00 69 1026.0
20240420150326 34 266 0.0 5.0 0.00 0.00 0.00 70 1025.9
20240420150223 33 334 0.0 5.0 0.00 0.00 0.00 70 1026.0
20240420150124 33 278 0.0 5.0 0.00 0.00 0.00 70 1025.9
20240420150021 33 265 0.0 5.0 0.00 0.00 0.00 70 1025.9
20240420145953 33 261 0.0 5.0 0.00 0.00 0.00 70 1026.0
20240420145920 33 324 0.0 5.0 0.00 0.00 0.00 69 1026.0
20240420145817 33 323 0.0 5.0 0.00 0.00 0.00 69 1025.9
20240420145717 33 316 0.0 5.0 0.00 0.00 0.00 69 1026.0
20240420145615 33 305 0.0 5.0 0.00 0.00 0.00 69 1026.0
20240420145517 33 275 0.0 4.0 0.00 0.00 0.00 69 1026.0
20240420145450 33 286 0.0 4.0 0.00 0.00 0.00 69 1026.0
20240420145412 33 343 0.0 4.0 0.00 0.00 0.00 69 1026.0
20240420145311 33 312 0.0 5.0 0.00 0.00 0.00 69 1025.9
20240420145209 33 275 0.0 6.0 0.00 0.00 0.00 69 1026.0
20240420145109 33 303 0.0 6.0 0.00 0.00 0.00 69 1026.0
20240420145009 33 289 0.0 6.0 0.00 0.00 0.00 69 1026.0
20240420144951 33 290 0.0 6.0 0.00 0.00 0.00 69 1026.0
20240420144921 33 261 0.0 6.0 0.00 0.00 0.00 69 1026.0
20240420144911 33 309 0.0 6.0 0.00 0.00 0.00 69 1026.0
20240420144842 33 306 0.0 6.0 0.00 0.00 0.00 69 1026.1
20240420144813 33 334 0.0 6.0 0.00 0.00 0.00 69 1026.0
20240420144742 33 312 0.0 6.0 0.00 0.00 0.00 69 1026.1
20240420144710 33 214 0.0 6.0 0.00 0.00 0.00 69 1026.0
20240420144403 33 262 0.0 6.0 0.00 0.00 0.00 69 1025.9
20240420144301 33 283 0.0 6.0 0.00 0.00 0.00 69 1026.0
20240420144200 33 347 0.0 2.0 0.00 0.00 0.00 69 1026.0
20240420144100 33 285 0.0 2.0 0.00 0.00 0.00 69 1026.0
20240420144003 33 298 0.0 2.0 0.00 0.00 0.00 69 1026.1
20240420143953 33 245 0.0 2.0 0.00 0.00 0.00 69 1026.1
20240420143913 33 244 0.0 6.0 0.00 0.00 0.00 71 1026.0
20240420143904 33 309 0.0 2.0 0.00 0.00 0.00 69 1026.0
20240420143836 33 234 0.0 2.0 0.00 0.00 0.00 70 1025.9
20240420143807 33 269 0.0 2.0 0.00 0.00 0.00 70 1025.9
20240420143737 33 209 0.0 4.0 0.00 0.00 0.00 70 1025.9
20240420143705 33 247 0.0 6.0 0.00 0.00 0.00 71 1026.0
20240420143357 33 265 0.0 6.0 0.00 0.00 0.00 71 1025.9
20240420143257 33 264 0.0 6.0 0.00 0.00 0.00 70 1025.8
20240420143155 33 264 0.0 9.0 0.00 0.00 0.00 71 1025.8
20240420143053 33 258 0.0 9.0 0.00 0.00 0.00 71 1025.9
20240420142954 33 266 0.0 9.0 0.00 0.00 0.00 71 1025.8
20240420142948 33 265 0.0 9.0 0.00 0.00 0.00 71 1025.8
20240420142926 32 295 0.0 10.0 0.00 0.00 0.00 70 1025.8
20240420142903 33 275 0.0 9.0 0.00 0.00 0.00 71 1025.8
20240420142832 32 272 0.0 9.0 0.00 0.00 0.00 71 1025.9
20240420142802 32 302 0.0 9.0 0.00 0.00 0.00 71 1025.9
20240420142735 32 290 0.0 10.0 0.00 0.00 0.00 70 1025.8
20240420142445 32 295 0.0 10.0 0.00 0.00 0.00 70 1025.8
20240420142339 32 274 0.0 10.0 0.00 0.00 0.00 70 1025.8
20240420142307 32 3 0.0 10.0 0.00 0.00 0.00 70 1025.9
20240420142208 32 265 0.0 10.0 0.00 0.00 0.00 70 1025.8
20240420142110 32 282 0.0 10.0 0.00 0.00 0.00 70 1025.8
20240420141947 32 0 0.0 10.0 0.00 0.00 0.00 70 1025.9
20240420141907 32 276 0.0 10.0 0.00 0.00 0.00 70 1025.9
20240420141804 32 305 0.0 10.0 0.00 0.00 0.00 71 1025.8
20240420141700 32 281 0.0 10.0 0.00 0.00 0.00 71 1025.8
20240420141602 32 274 0.0 7.0 0.00 0.00 0.00 71 1025.8
20240420141508 32 274 0.0 7.0 0.00 0.00 0.00 71 1025.9
20240420141446 32 319 0.0 7.0 0.00 0.00 0.00 71 1025.9
20240420141400 33 292 0.0 7.0 0.00 0.00 0.00 71 1026.0
20240420141252 33 247 0.0 7.0 0.00 0.00 0.00 71 1025.8
20240420141150 33 351 0.0 7.0 0.00 0.00 0.00 71 1025.8
20240420141049 33 333 0.0 7.0 0.00 0.00 0.00 71 1025.8
20240420140953 33 259 0.0 9.0 0.00 0.00 0.00 71 1025.8
20240420140948 33 259 0.0 7.0 0.00 0.00 0.00 71 1025.8
20240420140846 33 245 0.0 9.0 0.00 0.00 0.00 71 1025.8
20240420140747 33 296 0.0 9.0 0.00 0.00 0.00 72 1025.7
20240420140643 33 276 0.0 9.0 0.00 0.00 0.00 72 1025.7
20240420140544 33 312 0.0 9.0 0.00 0.00 0.00 72 1025.8
20240420140452 33 285 0.0 9.0 0.00 0.00 0.00 72 1025.7
20240420140446 33 305 0.0 9.0 0.00 0.00 0.00 72 1025.7
20240420140400 33 257 0.0 9.0 0.00 0.00 0.00 73 1025.8
20240420140352 33 240 0.0 9.0 0.00 0.00 0.00 72 1025.7
20240420140331 33 38 0.0 9.0 0.00 0.00 0.00 73 1025.7
20240420140236 33 0 0.0 9.0 0.00 0.00 0.00 73 1025.7
20240420135938 33 298 0.0 4.0 0.00 0.00 0.00 73 1025.7
20240420135811 33 262 0.0 9.0 0.00 0.00 0.00 73 1025.6
20240420135709 33 252 0.0 9.0 0.00 0.00 0.00 72 1025.6
20240420135605 33 252 0.0 9.0 0.00 0.00 0.00 72 1025.6
20240420135505 33 289 0.0 9.0 0.00 0.00 0.00 72 1025.6
20240420135443 33 314 0.0 9.0 0.00 0.00 0.00 72 1025.6
20240420135412 33 278 0.0 9.0 0.00 0.00 0.00 72 1025.6
20240420135353 33 0 0.0 9.0 0.00 0.00 0.00 72 1025.6
20240420135310 33 264 0.0 9.0 0.00 0.00 0.00 72 1025.6
20240420135218 33 274 0.0 9.0 0.00 0.00 0.00 72 1025.6
20240420134901 33 251 0.0 9.0 0.00 0.00 0.00 72 1025.6
20240420134759 33 285 0.0 4.0 0.00 0.00 0.00 72 1025.6
20240420134657 33 268 0.0 4.0 0.00 0.00 0.00 72 1025.6
20240420134552 33 257 0.0 2.0 0.00 0.00 0.00 72 1025.5
20240420134504 33 295 0.0 2.0 0.00 0.00 0.00 72 1025.6
20240420134442 33 286 0.0 2.0 0.00 0.00 0.00 72 1025.6
20240420134417 33 289 0.0 2.0 0.00 0.00 0.00 72 1025.6
20240420134410 33 275 0.0 3.0 0.00 0.00 0.00 72 1025.4
20240420134311 33 298 0.0 2.0 0.00 0.00 0.00 72 1025.5
20240420134242 33 272 0.0 2.0 0.00 0.00 0.00 72 1025.5
20240420134212 33 286 0.0 3.0 0.00 0.00 0.00 72 1025.5
20240420133913 33 274 0.0 3.0 0.00 0.00 0.00 72 1025.4
20240420133811 33 298 0.0 3.0 0.00 0.00 0.00 72 1025.5
20240420133713 33 278 0.0 3.0 0.00 0.00 0.00 72 1025.5
20240420133611 33 254 0.0 3.0 0.00 0.00 0.00 72 1025.5
20240420133510 33 326 0.0 3.0 0.00 0.00 0.00 72 1025.5
20240420133441 33 272 0.0 3.0 0.00 0.00 0.00 72 1025.5
20240420133411 33 272 0.0 3.0 0.00 0.00 0.00 72 1025.5
20240420133310 33 282 0.0 3.0 0.00 0.00 0.00 73 1025.5
20240420133213 33 281 0.0 3.0 0.00 0.00 0.00 73 1025.5
20240420133111 33 276 0.0 7.0 0.00 0.00 0.00 74 1025.3
20240420133008 33 299 0.0 7.0 0.00 0.00 0.00 74 1025.3
20240420132939 33 251 0.0 7.0 0.00 0.00 0.00 74 1025.3
20240420132909 33 283 0.0 7.0 0.00 0.00 0.00 74 1025.4
20240420132806 33 293 0.0 7.0 0.00 0.00 0.00 74 1025.4
20240420132706 33 279 0.0 12.0 0.00 0.00 0.00 74 1025.4
20240420132603 33 274 0.0 12.0 0.00 0.00 0.00 74 1025.4
20240420132506 33 288 0.0 12.0 0.00 0.00 0.00 74 1025.4
20240420132437 33 298 0.0 12.0 0.00 0.00 0.00 74 1025.4
20240420132405 33 243 0.0 12.0 0.00 0.00 0.00 74 1025.3
20240420132305 33 243 0.0 12.0 0.00 0.00 0.00 74 1025.3
20240420132204 33 243 0.0 12.0 0.00 0.00 0.00 74 1025.3
20240420132049 33 258 0.0 12.0 0.00 0.00 0.00 74 1025.2
20240420131948 33 268 0.0 12.0 0.00 0.00 0.00 74 1025.2
20240420131936 33 266 0.0 12.0 0.00 0.00 0.00 74 1025.2
20240420131848 33 257 0.0 12.0 0.00 0.00 0.00 74 1025.2
20240420131746 33 283 0.0 12.0 0.00 0.00 0.00 75 1025.1
20240420131642 33 296 0.0 5.0 0.00 0.00 0.00 75 1025.2
20240420131541 33 336 0.0 5.0 0.00 0.00 0.00 75 1025.1
20240420131438 33 254 0.0 2.0 0.00 0.00 0.00 75 1025.1
20240420131333 33 292 0.0 2.0 0.00 0.00 0.00 75 1025.1
20240420131231 33 250 0.0 3.0 0.00 0.00 0.00 75 1025.0
20240420131132 33 11 0.0 3.0 0.00 0.00 0.00 75 1025.1
20240420131033 33 327 0.0 3.0 0.00 0.00 0.00 75 1025.0
20240420130937 33 343 0.0 3.0 0.00 0.00 0.00 75 1025.0
20240420130932 33 0 0.0 4.0 0.00 0.00 0.00 75 1025.0
20240420130831 33 288 0.0 4.0 0.00 0.00 0.00 75 1025.0
20240420130732 33 3 0.0 4.0 0.00 0.00 0.00 74 1025.0
20240420130631 33 49 0.0 4.0 0.00 0.00 0.00 74 1025.0
20240420130527 33 288 0.0 7.0 0.00 0.00 0.00 74 1024.9
20240420130433 33 269 0.0 7.0 0.00 0.00 0.00 74 1024.9
20240420130425 33 268 0.0 7.0 0.00 0.00 0.00 74 1024.9
20240420130326 33 290 0.0 7.0 0.00 0.00 0.00 74 1024.9
20240420130255 33 296 0.0 7.0 0.00 0.00 0.00 74 1024.8
20240420130155 33 276 0.0 7.0 0.00 0.00 0.00 74 1024.9
20240420130048 33 306 0.0 7.0 0.00 0.00 0.00 74 1024.8
20240420125951 33 206 0.0 7.0 0.00 0.00 0.00 73 1024.8
20240420125929 33 250 0.0 7.0 0.00 0.00 0.00 73 1024.8
20240420125848 33 327 0.0 7.0 0.00 0.00 0.00 73 1024.8
20240420125745 33 279 0.0 7.0 0.00 0.00 0.00 73 1024.8
20240420125646 33 282 0.0 7.0 0.00 0.00 0.00 73 1024.7
20240420125547 33 345 0.0 7.0 0.00 0.00 0.00 73 1024.7
20240420125430 33 296 0.0 7.0 0.00 0.00 0.00 73 1024.7
20240420125342 33 353 0.0 7.0 0.00 0.00 0.00 73 1024.8
20240420125243 33 303 0.0 7.0 0.00 0.00 0.00 73 1024.7
20240420125140 33 327 0.0 7.0 0.00 0.00 0.00 73 1024.8
20240420125037 33 285 0.0 5.0 0.00 0.00 0.00 73 1024.7
20240420124938 33 305 0.0 4.0 0.00 0.00 0.00 73 1024.7
20240420124931 33 317 0.0 4.0 0.00 0.00 0.00 73 1024.7
20240420124836 33 293 0.0 4.0 0.00 0.00 0.00 73 1024.7
20240420124739 33 316 0.0 5.0 0.00 0.00 0.00 73 1024.7
20240420124636 33 244 0.0 5.0 0.00 0.00 0.00 72 1024.6
20240420124536 33 333 0.0 9.0 0.00 0.00 0.00 72 1024.7
20240420124438 33 281 0.0 9.0 0.00 0.00 0.00 72 1024.6
20240420124429 33 279 0.0 9.0 0.00 0.00 0.00 72 1024.7
20240420124334 33 274 0.0 9.0 0.00 0.00 0.00 72 1024.6
20240420124233 33 312 0.0 9.0 0.00 0.00 0.00 72 1024.6
20240420124132 33 295 0.0 9.0 0.00 0.00 0.00 72 1024.6
20240420124033 33 281 0.0 9.0 0.00 0.00 0.00 71 1024.6
20240420123940 33 292 0.0 9.0 0.00 0.00 0.00 71 1024.6
20240420123930 33 0 0.0 9.0 0.00 0.00 0.00 71 1024.6
20240420123903 33 275 0.0 9.0 0.00 0.00 0.00 71 1024.5
20240420123854 33 299 0.0 9.0 0.00 0.00 0.00 71 1024.5
20240420123827 33 330 0.0 9.0 0.00 0.00 0.00 71 1024.6
20240420123724 33 295 0.0 9.0 0.00 0.00 0.00 71 1024.6
20240420123425 33 275 0.0 9.0 0.00 0.00 0.00 71 1024.6
20240420123322 33 340 0.0 9.0 0.00 0.00 0.00 71 1024.5
20240420123220 33 313 0.0 9.0 0.00 0.00 0.00 71 1024.5
20240420123119 33 254 0.0 9.0 0.00 0.00 0.00 71 1024.5
20240420123018 33 330 0.0 9.0 0.00 0.00 0.00 71 1024.5
20240420122933 33 344 0.0 9.0 0.00 0.00 0.00 71 1024.5
20240420122916 33 306 0.0 9.0 0.00 0.00 0.00 71 1024.5
20240420122855 33 285 0.0 9.0 0.00 0.00 0.00 71 1024.3
20240420122847 33 295 0.0 11.0 0.00 0.00 0.00 71 1024.3
20240420122811 33 286 0.0 9.0 0.00 0.00 0.00 71 1024.4
20240420122716 33 251 0.0 9.0 0.00 0.00 0.00 71 1024.3
20240420122404 33 266 0.0 11.0 0.00 0.00 0.00 71 1024.3
20240420122235 33 269 0.0 11.0 0.00 0.00 0.00 71 1024.3
20240420122134 33 281 0.0 11.0 0.00 0.00 0.00 71 1024.3
20240420122033 33 279 0.0 11.0 0.00 0.00 0.00 71 1024.3
20240420121934 33 286 0.0 11.0 0.00 0.00 0.00 71 1024.3
20240420121929 33 275 0.0 11.0 0.00 0.00 0.00 71 1024.3
20240420121851 33 241 0.0 9.0 0.00 0.00 0.00 71 1024.2
20240420121837 33 319 0.0 11.0 0.00 0.00 0.00 71 1024.2
20240420121808 33 272 0.0 11.0 0.00 0.00 0.00 70 1024.3
20240420121739 33 355 0.0 11.0 0.00 0.00 0.00 70 1024.2
20240420121711 33 331 0.0 11.0 0.00 0.00 0.00 71 1024.2
20240420121640 33 241 0.0 9.0 0.00 0.00 0.00 71 1024.2
20240420121329 33 250 0.0 11.0 0.00 0.00 0.00 71 1024.2
20240420121229 33 269 0.0 11.0 0.00 0.00 0.00 70 1024.3
20240420121130 33 258 0.0 11.0 0.00 0.00 0.00 70 1024.2
20240420121030 33 243 0.0 11.0 0.00 0.00 0.00 70 1024.2
20240420120929 33 316 0.0 11.0 0.00 0.00 0.00 71 1024.2
20240420120831 33 292 0.0 11.0 0.00 0.00 0.00 70 1024.1
20240420120730 33 274 0.0 11.0 0.00 0.00 0.00 70 1024.2
20240420120629 33 282 0.0 11.0 0.00 0.00 0.00 70 1024.1
20240420120530 33 281 0.0 11.0 0.00 0.00 0.00 70 1024.1
20240420120430 33 272 0.0 11.0 0.00 0.00 0.00 71 1024.1
20240420120328 33 224 0.0 11.0 0.00 0.00 0.00 71 1024.2
20240420120229 33 337 0.0 11.0 0.00 0.00 0.00 71 1024.1
20240420120130 33 262 0.0 11.0 0.00 0.00 0.00 71 1024.1
20240420120028 33 298 0.0 11.0 0.00 0.00 0.00 71 1024.1
20240420115926 33 292 0.0 11.0 0.00 0.00 0.00 71 1024.0
20240420115826 33 269 0.0 11.0 0.00 0.00 0.00 71 1024.1
20240420115723 33 261 0.0 10.0 0.00 0.00 0.00 71 1024.0
20240420115614 33 274 0.0 10.0 0.00 0.00 0.00 71 1024.1
20240420115513 33 289 0.0 2.0 0.00 0.00 0.00 71 1024.1
20240420115430 33 330 0.0 2.0 0.00 0.00 0.00 71 1024.1
20240420115411 33 296 0.0 2.0 0.00 0.00 0.00 71 1024.1
20240420115313 33 298 0.0 2.0 0.00 0.00 0.00 71 1024.1
20240420115210 33 306 0.0 2.0 0.00 0.00 0.00 71 1024.1
20240420115110 33 254 0.0 2.0 0.00 0.00 0.00 71 1024.1
20240420115014 33 271 0.0 1.0 0.00 0.00 0.00 71 1024.1
20240420114910 33 252 0.0 1.0 0.00 0.00 0.00 70 1024.1
20240420114811 33 312 0.0 1.0 0.00 0.00 0.00 71 1024.1
20240420114710 33 288 0.0 2.0 0.00 0.00 0.00 70 1024.0
20240420114607 33 282 0.0 2.0 0.00 0.00 0.00 70 1024.0
20240420114506 32 262 0.0 2.0 0.00 0.00 0.00 70 1024.1
20240420114432 33 259 0.0 2.0 0.00 0.00 0.00 70 1024.1
20240420114405 32 264 0.0 2.0 0.00 0.00 0.00 70 1024.0
20240420114305 33 282 0.0 2.0 0.00 0.00 0.00 70 1023.9
20240420114204 32 336 0.0 2.0 0.00 0.00 0.00 70 1024.0
20240420114104 32 336 0.0 2.0 0.00 0.00 0.00 70 1023.9
20240420114006 32 336 0.0 2.0 0.00 0.00 0.00 70 1024.0
20240420113930 32 336 0.0 2.0 0.00 0.00 0.00 70 1024.0
20240420113838 32 257 0.0 2.0 0.00 0.00 0.00 70 1023.9
20240420113735 32 237 0.0 9.0 0.00 0.00 0.00 69 1023.9
20240420113634 32 323 0.0 9.0 0.00 0.00 0.00 70 1023.9
20240420113532 32 305 0.0 9.0 0.00 0.00 0.00 69 1024.0
20240420113433 32 303 0.0 9.0 0.00 0.00 0.00 69 1023.9
20240420113331 32 292 0.0 9.0 0.00 0.00 0.00 69 1023.9
20240420113233 32 274 0.0 9.0 0.00 0.00 0.00 69 1023.8
20240420113132 32 269 0.0 9.0 0.00 0.00 0.00 69 1023.8
20240420113034 32 262 0.0 9.0 0.00 0.00 0.00 69 1023.9
20240420112932 32 262 0.0 9.0 0.00 0.00 0.00 69 1023.9
20240420112842 32 313 0.0 7.0 0.00 0.00 0.00 69 1023.8
20240420112835 32 262 0.0 9.0 0.00 0.00 0.00 69 1023.8
20240420112801 32 250 0.0 7.0 0.00 0.00 0.00 69 1023.9
20240420112729 32 338 0.0 7.0 0.00 0.00 0.00 69 1023.8
20240420112659 32 341 0.0 7.0 0.00 0.00 0.00 69 1023.7
20240420112627 32 313 0.0 7.0 0.00 0.00 0.00 69 1023.8
20240420112338 32 292 0.0 7.0 0.00 0.00 0.00 68 1023.7
20240420112323 32 252 0.0 7.0 0.00 0.00 0.00 69 1023.7
20240420112252 32 275 0.0 7.0 0.00 0.00 0.00 69 1023.8
20240420112225 32 247 0.0 7.0 0.00 0.00 0.00 68 1023.8
20240420112157 32 271 0.0 7.0 0.00 0.00 0.00 68 1023.7
20240420112124 32 292 0.0 7.0 0.00 0.00 0.00 68 1023.7
20240420111814 32 282 0.0 7.0 0.00 0.00 0.00 69 1023.7
20240420111714 32 275 0.0 7.0 0.00 0.00 0.00 69 1023.7
20240420111612 32 269 0.0 2.0 0.00 0.00 0.00 69 1023.7
20240420111510 32 278 0.0 2.0 0.00 0.00 0.00 69 1023.8
20240420111413 32 285 0.0 5.0 0.00 0.00 0.00 68 1023.8
20240420111342 32 281 0.0 5.0 0.00 0.00 0.00 68 1023.7
20240420111326 32 281 0.0 5.0 0.00 0.00 0.00 69 1023.7
20240420111257 32 305 0.0 5.0 0.00 0.00 0.00 68 1023.7
20240420111225 32 278 0.0 5.0 0.00 0.00 0.00 68 1023.7
20240420111157 32 202 0.0 5.0 0.00 0.00 0.00 68 1023.7
20240420111124 32 281 0.0 5.0 0.00 0.00 0.00 68 1023.7
20240420110814 32 281 0.0 5.0 0.00 0.00 0.00 68 1023.7
20240420110711 32 272 0.0 5.0 0.00 0.00 0.00 68 1023.7
20240420110612 32 337 0.0 5.0 0.00 0.00 0.00 68 1023.7
20240420110512 32 266 0.0 5.0 0.00 0.00 0.00 68 1023.7
20240420110414 32 302 0.0 2.0 0.00 0.00 0.00 68 1023.6
20240420110344 32 299 0.0 1.0 0.00 0.00 0.00 68 1023.6
20240420110327 32 243 0.0 1.0 0.00 0.00 0.00 68 1023.6
20240420110247 32 300 0.0 1.0 0.00 0.00 0.00 68 1023.6
20240420110213 32 345 0.0 1.0 0.00 0.00 0.00 68 1023.6
20240420110149 32 299 0.0 1.0 0.00 0.00 0.00 68 1023.6
20240420110124 32 299 0.0 1.0 0.00 0.00 0.00 68 1023.6
20240420105813 32 299 0.0 1.0 0.00 0.00 0.00 68 1023.6
20240420105713 32 299 0.0 2.0 0.00 0.00 0.00 68 1023.5
20240420105612 32 0 0.0 2.0 0.00 0.00 0.00 68 1023.5
20240420105510 32 241 0.0 2.0 0.00 0.00 0.00 68 1023.5
20240420105406 32 0 0.0 2.0 0.00 0.00 0.00 68 1023.6
20240420105340 32 255 0.0 10.0 0.00 0.00 0.00 68 1023.6
20240420105323 32 299 0.0 10.0 0.00 0.00 0.00 68 1023.6
20240420105252 32 299 0.0 10.0 0.00 0.00 0.00 68 1023.6
20240420105224 32 289 0.0 10.0 0.00 0.00 0.00 68 1023.6
20240420105153 32 312 0.0 10.0 0.00 0.00 0.00 68 1023.6
20240420105121 32 255 0.0 10.0 0.00 0.00 0.00 68 1023.7
20240420104813 32 238 0.0 10.0 0.00 0.00 0.00 68 1023.6
20240420104710 32 289 0.0 10.0 0.00 0.00 0.00 67 1023.6
20240420104612 32 306 0.0 10.0 0.00 0.00 0.00 68 1023.6
20240420104510 32 299 0.0 10.0 0.00 0.00 0.00 68 1023.6
20240420104418 32 276 0.0 10.0 0.00 0.00 0.00 68 1023.6
20240420104406 32 244 0.0 10.0 0.00 0.00 0.00 68 1023.6
20240420104311 32 262 0.0 10.0 0.00 0.00 0.00 67 1023.6
20240420104212 32 248 0.0 10.0 0.00 0.00 0.00 67 1023.6
20240420104111 32 293 0.0 10.0 0.00 0.00 0.00 67 1023.5
20240420104012 32 299 0.0 10.0 0.00 0.00 0.00 68 1023.5
20240420103913 32 285 0.0 10.0 0.00 0.00 0.00 68 1023.5
20240420103905 32 299 0.0 10.0 0.00 0.00 0.00 68 1023.5
20240420103843 32 279 0.0 7.0 0.00 0.00 0.00 68 1023.5
20240420103826 32 276 0.0 7.0 0.00 0.00 0.00 68 1023.5
20240420103756 32 0 0.0 7.0 0.00 0.00 0.00 68 1023.5
20240420103725 32 69 0.0 7.0 0.00 0.00 0.00 68 1023.5
20240420103655 32 271 0.0 7.0 0.00 0.00 0.00 68 1023.4
20240420103623 32 281 0.0 7.0 0.00 0.00 0.00 68 1023.5
20240420103311 32 283 0.0 7.0 0.00 0.00 0.00 68 1023.5
20240420103212 32 276 0.0 7.0 0.00 0.00 0.00 68 1023.5
20240420103111 32 271 0.0 7.0 0.00 0.00 0.00 69 1023.5
20240420103010 32 333 0.0 7.0 0.00 0.00 0.00 69 1023.6
20240420102928 32 254 0.0 3.0 0.00 0.00 0.00 69 1023.5
20240420102915 32 289 0.0 6.0 0.00 0.00 0.00 69 1023.5
20240420102905 32 288 0.0 6.0 0.00 0.00 0.00 69 1023.5
20240420102842 32 272 0.0 3.0 0.00 0.00 0.00 69 1023.5
20240420102759 32 216 0.0 3.0 0.00 0.00 0.00 69 1023.5
20240420102724 32 266 0.0 3.0 0.00 0.00 0.00 69 1023.6
20240420102657 32 247 0.0 3.0 0.00 0.00 0.00 69 1023.6
20240420102628 32 320 0.0 3.0 0.00 0.00 0.00 69 1023.6
20240420102310 32 338 0.0 3.0 0.00 0.00 0.00 69 1023.5
20240420102209 32 39 0.0 3.0 0.00 0.00 0.00 69 1023.5
20240420102110 32 305 0.0 4.0 0.00 0.00 0.00 70 1023.5
20240420102009 32 334 0.0 4.0 0.00 0.00 0.00 70 1023.6
20240420101913 32 0 0.0 4.0 0.00 0.00 0.00 70 1023.6
20240420101903 32 255 0.0 4.0 0.00 0.00 0.00 70 1023.6
20240420101842 32 227 0.0 11.0 0.00 0.00 0.00 70 1023.5
20240420101825 32 272 0.0 4.0 0.00 0.00 0.00 70 1023.6
20240420101753 32 271 0.0 7.0 0.00 0.00 0.00 70 1023.6
20240420101719 32 259 0.0 7.0 0.00 0.00 0.00 70 1023.6
20240420101648 32 255 0.0 11.0 0.00 0.00 0.00 70 1023.6
20240420101622 32 227 0.0 11.0 0.00 0.00 0.00 70 1023.6
20240420101311 32 227 0.0 11.0 0.00 0.00 0.00 70 1023.5
20240420101211 32 235 0.0 11.0 0.00 0.00 0.00 70 1023.5
20240420101111 32 274 0.0 11.0 0.00 0.00 0.00 70 1023.5
20240420101010 32 282 0.0 11.0 0.00 0.00 0.00 70 1023.5
20240420100911 32 306 0.0 11.0 0.00 0.00 0.00 70 1023.5
20240420100901 32 289 0.0 11.0 0.00 0.00 0.00 70 1023.6
20240420100811 32 247 0.0 11.0 0.00 0.00 0.00 70 1023.6
20240420100710 32 290 0.0 11.0 0.00 0.00 0.00 70 1023.5
20240420100611 32 281 0.0 11.0 0.00 0.00 0.00 71 1023.6
20240420100512 32 240 0.0 7.0 0.00 0.00 0.00 71 1023.6
20240420100415 32 334 0.0 3.0 0.00 0.00 0.00 71 1023.6
20240420100404 32 0 0.0 3.0 0.00 0.00 0.00 71 1023.5
20240420100310 32 276 0.0 3.0 0.00 0.00 0.00 71 1023.5
20240420100210 32 279 0.0 3.0 0.00 0.00 0.00 71 1023.6
20240420100110 32 244 0.0 3.0 0.00 0.00 0.00 71 1023.6
20240420100009 32 255 0.0 3.0 0.00 0.00 0.00 71 1023.5
20240420095911 32 240 0.0 3.0 0.00 0.00 0.00 71 1023.5
20240420095900 32 286 0.0 3.0 0.00 0.00 0.00 71 1023.5
20240420095812 32 266 0.0 3.0 0.00 0.00 0.00 71 1023.6
20240420095710 32 292 0.0 3.0 0.00 0.00 0.00 71 1023.6
20240420095609 32 272 0.0 3.0 0.00 0.00 0.00 71 1023.6
20240420095512 32 255 0.0 3.0 0.00 0.00 0.00 71 1023.5
20240420095403 32 279 0.0 4.0 0.00 0.00 0.00 71 1023.5
20240420095310 32 306 0.0 5.0 0.00 0.00 0.00 71 1023.4
20240420095210 33 310 0.0 5.0 0.00 0.00 0.00 72 1023.4
20240420095112 33 226 0.0 5.0 0.00 0.00 0.00 72 1023.4
20240420095011 33 290 0.0 9.0 0.00 0.00 0.00 72 1023.4
20240420094902 33 193 0.0 9.0 0.00 0.00 0.00 72 1023.4
20240420094811 33 1 0.0 9.0 0.00 0.00 0.00 72 1023.4
20240420094710 33 299 0.0 9.0 0.00 0.00 0.00 72 1023.4
20240420094611 33 265 0.0 9.0 0.00 0.00 0.00 72 1023.4
20240420094510 33 319 0.0 9.0 0.00 0.00 0.00 73 1023.5
20240420094413 33 338 0.0 9.0 0.00 0.00 0.00 73 1023.4
20240420094400 33 298 0.0 9.0 0.00 0.00 0.00 73 1023.4
20240420094312 33 298 0.0 9.0 0.00 0.00 0.00 73 1023.4
20240420094211 33 323 0.0 9.0 0.00 0.00 0.00 72 1023.3
20240420094111 33 293 0.0 9.0 0.00 0.00 0.00 73 1023.4
20240420094009 33 319 0.0 7.0 0.00 0.00 0.00 73 1023.4
20240420093914 33 288 0.0 7.0 0.00 0.00 0.00 73 1023.3
20240420093900 33 317 0.0 7.0 0.00 0.00 0.00 73 1023.3
20240420093811 33 275 0.0 6.0 0.00 0.00 0.00 73 1023.3
20240420093711 33 281 0.0 6.0 0.00 0.00 0.00 73 1023.3
20240420093609 33 305 0.0 6.0 0.00 0.00 0.00 72 1023.3
20240420093511 33 261 0.0 10.0 0.00 0.00 0.00 72 1023.3
20240420093414 33 283 0.0 10.0 0.00 0.00 0.00 72 1023.3
20240420093402 33 279 0.0 10.0 0.00 0.00 0.00 72 1023.3
20240420093309 33 266 0.0 12.0 0.00 0.00 0.00 72 1023.3
20240420093210 33 258 0.0 12.0 0.00 0.00 0.00 72 1023.3
20240420093110 33 271 0.0 12.0 0.00 0.00 0.00 72 1023.1
20240420093009 33 279 0.0 12.0 0.00 0.00 0.00 72 1023.3
20240420092913 33 295 0.0 12.0 0.00 0.00 0.00 72 1023.3
20240420092901 33 250 0.0 12.0 0.00 0.00 0.00 72 1023.3
20240420092815 33 262 0.0 12.0 0.00 0.00 0.00 72 1023.3
20240420092712 33 261 0.0 12.0 0.00 0.00 0.00 72 1023.3
20240420092612 33 290 0.0 12.0 0.00 0.00 0.00 72 1023.1
20240420092509 33 286 0.0 12.0 0.00 0.00 0.00 72 1023.1
20240420092401 33 275 0.0 12.0 0.00 0.00 0.00 72 1023.1
20240420092315 33 282 0.0 10.0 0.00 0.00 0.00 72 1023.1
20240420092210 33 123 0.0 14.0 0.00 0.00 0.00 73 1023.1
20240420092110 33 271 0.0 14.0 0.00 0.00 0.00 73 1023.1
20240420092009 33 286 0.0 14.0 0.00 0.00 0.00 73 1023.1
20240420091923 33 274 0.0 14.0 0.00 0.00 0.00 73 1023.0
20240420091915 33 252 0.0 14.0 0.00 0.00 0.00 73 1023.1
20240420091903 33 213 0.0 14.0 0.00 0.00 0.00 73 1023.0
20240420091839 33 251 0.0 14.0 0.00 0.00 0.00 73 1023.0
20240420091755 33 281 0.0 14.0 0.00 0.00 0.00 73 1023.1
20240420091722 33 266 0.0 14.0 0.00 0.00 0.00 73 1023.1
20240420091652 33 271 0.0 14.0 0.00 0.00 0.00 73 1023.0
20240420091626 33 274 0.0 14.0 0.00 0.00 0.00 73 1023.1
20240420091310 33 259 0.0 14.0 0.00 0.00 0.00 73 1023.0
20240420091210 33 261 0.0 13.0 0.00 0.00 0.00 73 1022.9
20240420091111 33 257 0.0 6.0 0.00 0.00 0.00 73 1022.9
20240420091010 33 251 0.0 2.0 0.00 0.00 0.00 73 1023.0
20240420090914 33 281 0.0 1.0 0.00 0.00 0.00 73 1023.0
20240420090901 33 281 0.0 1.0 0.00 0.00 0.00 73 1022.9
20240420090838 33 300 0.0 1.0 0.00 0.00 0.00 73 1022.8
20240420090823 33 281 0.0 1.0 0.00 0.00 0.00 73 1022.9
20240420090751 33 282 0.0 1.0 0.00 0.00 0.00 73 1022.9
20240420090723 33 289 0.0 1.0 0.00 0.00 0.00 73 1022.9
20240420090650 33 278 0.0 1.0 0.00 0.00 0.00 73 1022.8
20240420090623 33 303 0.0 1.0 0.00 0.00 0.00 73 1022.9
20240420090310 33 257 0.0 4.0 0.00 0.00 0.00 73 1022.8
20240420090210 33 290 0.0 4.0 0.00 0.00 0.00 73 1022.9
20240420090113 33 259 0.0 4.0 0.00 0.00 0.00 73 1022.9
20240420090010 33 283 0.0 4.0 0.00 0.00 0.00 73 1022.9
20240420085914 33 276 0.0 4.0 0.00 0.00 0.00 73 1022.9
20240420085902 33 278 0.0 4.0 0.00 0.00 0.00 73 1022.9
20240420085837 33 316 0.0 4.0 0.00 0.00 0.00 72 1022.7
20240420085822 33 279 0.0 4.0 0.00 0.00 0.00 73 1022.9
20240420085753 33 266 0.0 4.0 0.00 0.00 0.00 72 1022.8
20240420085723 33 261 0.0 4.0 0.00 0.00 0.00 72 1022.8
20240420085650 33 296 0.0 4.0 0.00 0.00 0.00 72 1022.8
20240420085618 33 316 0.0 4.0 0.00 0.00 0.00 72 1022.7
20240420085303 33 338 0.0 1.0 0.00 0.00 0.00 72 1022.7
20240420085203 33 281 0.0 5.0 0.00 0.00 0.00 72 1022.6
20240420085107 33 265 0.0 9.0 0.00 0.00 0.00 72 1022.6
20240420085002 33 251 0.0 9.0 0.00 0.00 0.00 72 1022.7
20240420084902 33 262 0.0 9.0 0.00 0.00 0.00 72 1022.6
20240420084801 33 278 0.0 9.0 0.00 0.00 0.00 72 1022.6
20240420084702 33 283 0.0 9.0 0.00 0.00 0.00 72 1022.6
20240420084606 33 283 0.0 9.0 0.00 0.00 0.00 72 1022.6
20240420084503 33 283 0.0 9.0 0.00 0.00 0.00 72 1022.6
20240420084401 33 283 0.0 9.0 0.00 0.00 0.00 72 1022.5
20240420084300 33 266 0.0 9.0 0.00 0.00 0.00 72 1022.6
20240420084202 33 271 0.0 9.0 0.00 0.00 0.00 72 1022.4
20240420084102 33 296 0.0 6.0 0.00 0.00 0.00 72 1022.6
20240420084003 33 262 0.0 5.0 0.00 0.00 0.00 72 1022.6
20240420083902 33 279 0.0 10.0 0.00 0.00 0.00 72 1022.5
20240420083802 33 269 0.0 10.0 0.00 0.00 0.00 72 1022.5
20240420083701 33 266 0.0 10.0 0.00 0.00 0.00 72 1022.6
20240420083600 33 257 0.0 10.0 0.00 0.00 0.00 72 1022.5
20240420083504 33 274 0.0 10.0 0.00 0.00 0.00 71 1022.4
20240420083401 33 266 0.0 10.0 0.00 0.00 0.00 71 1022.5
20240420083333 34 255 0.0 15.0 0.00 0.00 0.00 70 1022.6
20240420083314 33 243 0.0 10.0 0.00 0.00 0.00 71 1022.5
20240420083249 34 306 0.0 10.0 0.00 0.00 0.00 71 1022.5
20240420083221 34 261 0.0 15.0 0.00 0.00 0.00 71 1022.5
20240420083148 34 283 0.0 15.0 0.00 0.00 0.00 71 1022.6
20240420082901 34 262 0.0 15.0 0.00 0.00 0.00 70 1022.6
20240420082759 34 264 0.0 15.0 0.00 0.00 0.00 70 1022.6
20240420082658 34 289 0.0 15.0 0.00 0.00 0.00 70 1022.5
20240420082556 34 275 0.0 15.0 0.00 0.00 0.00 70 1022.5
20240420082455 34 268 0.0 15.0 0.00 0.00 0.00 70 1022.5
20240420082402 34 330 0.0 15.0 0.00 0.00 0.00 70 1022.4
20240420082352 34 283 0.0 15.0 0.00 0.00 0.00 70 1022.4
20240420082341 34 257 0.0 10.0 0.00 0.00 0.00 70 1022.5
20240420082315 34 278 0.0 15.0 0.00 0.00 0.00 70 1022.4
20240420082245 34 279 0.0 15.0 0.00 0.00 0.00 70 1022.4
20240420082212 34 313 0.0 10.0 0.00 0.00 0.00 70 1022.5
20240420082141 34 259 0.0 10.0 0.00 0.00 0.00 70 1022.4
20240420081835 34 289 0.0 10.0 0.00 0.00 0.00 70 1022.5
20240420081733 34 333 0.0 9.0 0.00 0.00 0.00 70 1022.4
20240420081631 34 237 0.0 9.0 0.00 0.00 0.00 70 1022.4
20240420081531 34 286 0.0 9.0 0.00 0.00 0.00 70 1022.4
20240420081430 34 272 0.0 9.0 0.00 0.00 0.00 70 1022.4
20240420081403 34 278 0.0 9.0 0.00 0.00 0.00 70 1022.3
20240420081348 34 316 0.0 12.0 0.00 0.00 0.00 72 1022.4
20240420081337 34 302 0.0 9.0 0.00 0.00 0.00 70 1022.3
20240420081308 34 298 0.0 11.0 0.00 0.00 0.00 71 1022.3
20240420081233 34 336 0.0 12.0 0.00 0.00 0.00 71 1022.4
20240420081200 34 261 0.0 12.0 0.00 0.00 0.00 71 1022.3
20240420081131 34 283 0.0 12.0 0.00 0.00 0.00 71 1022.4
20240420080831 34 278 0.0 12.0 0.00 0.00 0.00 72 1022.4
20240420080731 34 233 0.0 15.0 0.00 0.00 0.00 72 1022.5
20240420080629 34 268 0.0 15.0 0.00 0.00 0.00 72 1022.4
20240420080531 34 271 0.0 15.0 0.00 0.00 0.00 72 1022.4
20240420080429 34 276 0.0 15.0 0.00 0.00 0.00 72 1022.4
20240420080401 34 272 0.0 15.0 0.00 0.00 0.00 72 1022.4
20240420080332 34 235 0.0 15.0 0.00 0.00 0.00 72 1022.4
20240420080325 34 286 0.0 15.0 0.00 0.00 0.00 72 1022.5
20240420080259 34 276 0.0 15.0 0.00 0.00 0.00 72 1022.4
20240420080226 34 337 0.0 15.0 0.00 0.00 0.00 72 1022.4
20240420080151 34 279 0.0 15.0 0.00 0.00 0.00 72 1022.3
20240420080124 34 285 0.0 15.0 0.00 0.00 0.00 72 1022.3
20240420075847 34 285 0.0 12.0 0.00 0.00 0.00 73 1022.3
20240420075828 34 320 0.0 12.0 0.00 0.00 0.00 72 1022.5
20240420075758 34 269 0.0 12.0 0.00 0.00 0.00 73 1022.3
20240420075726 34 228 0.0 12.0 0.00 0.00 0.00 72 1022.3
20240420075654 34 281 0.0 12.0 0.00 0.00 0.00 73 1022.4
20240420075622 34 285 0.0 12.0 0.00 0.00 0.00 73 1022.3
20240420075312 34 306 0.0 12.0 0.00 0.00 0.00 73 1022.3
20240420075210 34 283 0.0 6.0 0.00 0.00 0.00 73 1022.3
20240420075112 34 264 0.0 10.0 0.00 0.00 0.00 73 1022.3
20240420075010 34 279 0.0 12.0 0.00 0.00 0.00 73 1022.3
20240420074902 34 279 0.0 12.0 0.00 0.00 0.00 73 1022.4
20240420074817 34 305 0.0 16.0 0.00 0.00 0.00 73 1022.4
20240420074811 34 279 0.0 12.0 0.00 0.00 0.00 73 1022.4
20240420074740 34 261 0.0 12.0 0.00 0.00 0.00 74 1022.3
20240420074710 34 250 0.0 16.0 0.00 0.00 0.00 73 1022.4
20240420074638 34 271 0.0 16.0 0.00 0.00 0.00 73 1022.4
20240420074607 34 285 0.0 16.0 0.00 0.00 0.00 73 1022.4
20240420074312 34 279 0.0 16.0 0.00 0.00 0.00 73 1022.4
20240420074211 34 286 0.0 16.0 0.00 0.00 0.00 73 1022.3
20240420074111 34 272 0.0 16.0 0.00 0.00 0.00 74 1022.4
20240420074010 34 299 0.0 16.0 0.00 0.00 0.00 74 1022.3
20240420073911 34 286 0.0 16.0 0.00 0.00 0.00 74 1022.3
20240420073836 34 254 0.0 16.0 0.00 0.00 0.00 74 1022.3
20240420073822 34 286 0.0 6.0 0.00 0.00 0.00 76 1022.4
20240420073812 34 285 0.0 16.0 0.00 0.00 0.00 74 1022.3
20240420073743 34 293 0.0 16.0 0.00 0.00 0.00 75 1022.4
20240420073713 34 295 0.0 12.0 0.00 0.00 0.00 75 1022.4
20240420073643 34 296 0.0 9.0 0.00 0.00 0.00 75 1022.3
20240420073610 34 295 0.0 9.0 0.00 0.00 0.00 76 1022.4
20240420073311 34 243 0.0 6.0 0.00 0.00 0.00 76 1022.4
20240420073210 34 248 0.0 6.0 0.00 0.00 0.00 76 1022.4
20240420073112 34 271 0.0 6.0 0.00 0.00 0.00 76 1022.4
20240420073011 34 244 0.0 6.0 0.00 0.00 0.00 76 1022.4
20240420072910 34 264 0.0 6.0 0.00 0.00 0.00 76 1022.5
20240420072834 34 276 0.0 6.0 0.00 0.00 0.00 76 1022.3
20240420072810 34 257 0.0 5.0 0.00 0.00 0.00 76 1022.3
20240420072711 34 250 0.0 5.0 0.00 0.00 0.00 76 1022.4
20240420072612 34 251 0.0 5.0 0.00 0.00 0.00 76 1022.4
20240420072510 34 247 0.0 5.0 0.00 0.00 0.00 76 1022.3
20240420072411 34 292 0.0 5.0 0.00 0.00 0.00 77 1022.3
20240420072335 34 276 0.0 5.0 0.00 0.00 0.00 77 1022.4
20240420072313 34 223 0.0 3.0 0.00 0.00 0.00 77 1022.4
20240420072210 34 268 0.0 3.0 0.00 0.00 0.00 76 1022.3
20240420072111 34 298 0.0 3.0 0.00 0.00 0.00 76 1022.3
20240420072010 34 258 0.0 3.0 0.00 0.00 0.00 77 1022.3
20240420071912 34 286 0.0 3.0 0.00 0.00 0.00 77 1022.4
20240420071833 34 272 0.0 2.0 0.00 0.00 0.00 76 1022.3
20240420071810 34 281 0.0 11.0 0.00 0.00 0.00 77 1022.3
20240420071711 34 281 0.0 11.0 0.00 0.00 0.00 77 1022.4
20240420071610 34 244 0.0 12.0 0.00 0.00 0.00 76 1022.3
20240420071511 34 268 0.0 12.0 0.00 0.00 0.00 76 1022.4
20240420071412 34 303 0.0 12.0 0.00 0.00 0.00 76 1022.4
20240420071335 34 286 0.0 12.0 0.00 0.00 0.00 76 1022.4
20240420071311 34 265 0.0 12.0 0.00 0.00 0.00 76 1022.4
20240420071209 34 265 0.0 12.0 0.00 0.00 0.00 76 1022.3
20240420071111 34 261 0.0 12.0 0.00 0.00 0.00 76 1022.4
20240420071010 34 285 0.0 12.0 0.00 0.00 0.00 76 1022.5
20240420070911 34 299 0.0 12.0 0.00 0.00 0.00 75 1022.4
20240420070831 34 266 0.0 12.0 0.00 0.00 0.00 75 1022.4
20240420070811 34 281 0.0 12.0 0.00 0.00 0.00 75 1022.4
20240420070712 34 276 0.0 12.0 0.00 0.00 0.00 74 1022.5
20240420070609 34 276 0.0 12.0 0.00 0.00 0.00 74 1022.4
20240420070511 34 272 0.0 12.0 0.00 0.00 0.00 73 1022.4
20240420070411 35 254 0.0 12.0 0.00 0.00 0.00 73 1022.4
20240420070331 35 0 0.0 12.0 0.00 0.00 0.00 72 1022.4
20240420070311 35 265 0.0 12.0 0.00 0.00 0.00 72 1022.4
20240420070210 35 278 0.0 12.0 0.00 0.00 0.00 72 1022.4
20240420070112 35 299 0.0 11.0 0.00 0.00 0.00 71 1022.4
20240420070013 35 276 0.0 13.0 0.00 0.00 0.00 71 1022.3
20240420065911 35 254 0.0 13.0 0.00 0.00 0.00 71 1022.4
20240420065831 35 264 0.0 13.0 0.00 0.00 0.00 71 1022.3
20240420065809 35 289 0.0 13.0 0.00 0.00 0.00 71 1022.3
20240420065713 35 262 0.0 13.0 0.00 0.00 0.00 71 1022.3
20240420065643 35 276 0.0 13.0 0.00 0.00 0.00 71 1022.3
20240420065547 35 257 0.0 13.0 0.00 0.00 0.00 71 1022.2
20240420065445 35 262 0.0 13.0 0.00 0.00 0.00 70 1022.3
20240420065344 35 204 0.0 13.0 0.00 0.00 0.00 70 1022.3
20240420065330 35 262 0.0 13.0 0.00 0.00 0.00 70 1022.3
20240420065240 35 276 0.0 13.0 0.00 0.00 0.00 70 1022.3
20240420065143 35 288 0.0 13.0 0.00 0.00 0.00 70 1022.3
20240420065044 35 282 0.0 13.0 0.00 0.00 0.00 70 1022.3
20240420064940 35 238 0.0 13.0 0.00 0.00 0.00 71 1022.3
20240420064843 35 244 0.0 13.0 0.00 0.00 0.00 70 1022.3
20240420064828 35 233 0.0 13.0 0.00 0.00 0.00 71 1022.3
20240420064746 35 269 0.0 13.0 0.00 0.00 0.00 70 1022.3
20240420064641 35 258 0.0 13.0 0.00 0.00 0.00 70 1022.4
20240420064542 35 259 0.0 13.0 0.00 0.00 0.00 70 1022.3
20240420064444 35 272 0.0 9.0 0.00 0.00 0.00 70 1022.4
20240420064345 35 0 0.0 9.0 0.00 0.00 0.00 70 1022.2
20240420064330 35 357 0.0 9.0 0.00 0.00 0.00 70 1022.2
20240420064240 35 281 0.0 9.0 0.00 0.00 0.00 70 1022.4
20240420064143 35 286 0.0 9.0 0.00 0.00 0.00 70 1022.3
20240420064042 35 313 0.0 9.0 0.00 0.00 0.00 70 1022.3
20240420063944 35 210 0.0 9.0 0.00 0.00 0.00 70 1022.3
20240420063846 35 274 0.0 9.0 0.00 0.00 0.00 70 1022.3
20240420063824 35 271 0.0 9.0 0.00 0.00 0.00 70 1022.3
20240420063741 35 276 0.0 9.0 0.00 0.00 0.00 70 1022.3
20240420063640 35 292 0.0 9.0 0.00 0.00 0.00 70 1022.2
20240420063542 35 275 0.0 7.0 0.00 0.00 0.00 70 1022.3
20240420063440 35 265 0.0 7.0 0.00 0.00 0.00 70 1022.2
20240420063344 35 235 0.0 7.0 0.00 0.00 0.00 70 1022.2
20240420063321 35 255 0.0 7.0 0.00 0.00 0.00 70 1022.2
20240420063238 35 317 0.0 7.0 0.00 0.00 0.00 70 1022.3
20240420063139 35 258 0.0 7.0 0.00 0.00 0.00 70 1022.2
20240420063044 35 302 0.0 7.0 0.00 0.00 0.00 70 1022.2
20240420062941 35 272 0.0 7.0 0.00 0.00 0.00 70 1022.3
20240420062844 35 276 0.0 7.0 0.00 0.00 0.00 70 1022.2
20240420062819 35 247 0.0 7.0 0.00 0.00 0.00 70 1022.2
20240420062744 35 303 0.0 7.0 0.00 0.00 0.00 70 1022.2
20240420062644 35 292 0.0 7.0 0.00 0.00 0.00 70 1022.3
20240420062543 35 261 0.0 5.0 0.00 0.00 0.00 70 1022.3
20240420062441 35 244 0.0 5.0 0.00 0.00 0.00 70 1022.2
20240420062342 35 288 0.0 10.0 0.00 0.00 0.00 71 1022.3
20240420062316 35 302 0.0 10.0 0.00 0.00 0.00 71 1022.3
20240420062242 35 293 0.0 10.0 0.00 0.00 0.00 70 1022.3
20240420062142 35 279 0.0 10.0 0.00 0.00 0.00 71 1022.3
20240420062044 35 252 0.0 11.0 0.00 0.00 0.00 71 1022.2
20240420061939 35 283 0.0 11.0 0.00 0.00 0.00 71 1022.3
20240420061840 35 271 0.0 11.0 0.00 0.00 0.00 71 1022.3
20240420061816 35 269 0.0 11.0 0.00 0.00 0.00 71 1022.3
20240420061741 35 275 0.0 11.0 0.00 0.00 0.00 71 1022.3
20240420061639 35 240 0.0 11.0 0.00 0.00 0.00 70 1022.3
20240420061543 35 262 0.0 11.0 0.00 0.00 0.00 71 1022.2
20240420061441 35 255 0.0 11.0 0.00 0.00 0.00 71 1022.2
20240420061343 35 276 0.0 11.0 0.00 0.00 0.00 71 1022.3
20240420061316 35 286 0.0 11.0 0.00 0.00 0.00 71 1022.3
20240420061244 35 269 0.0 11.0 0.00 0.00 0.00 71 1022.3
20240420061141 35 237 0.0 11.0 0.00 0.00 0.00 71 1022.3
20240420061042 35 281 0.0 12.0 0.00 0.00 0.00 71 1022.3
20240420060942 35 247 0.0 12.0 0.00 0.00 0.00 71 1022.2
20240420060840 35 252 0.0 12.0 0.00 0.00 0.00 71 1022.2
20240420060818 35 251 0.0 12.0 0.00 0.00 0.00 70 1022.2
20240420060738 35 268 0.0 12.0 0.00 0.00 0.00 71 1022.3
20240420060642 35 283 0.0 12.0 0.00 0.00 0.00 71 1022.2
20240420060539 35 305 0.0 12.0 0.00 0.00 0.00 71 1022.2
20240420060443 35 250 0.0 12.0 0.00 0.00 0.00 71 1022.2
20240420060341 35 252 0.0 12.0 0.00 0.00 0.00 71 1022.2
20240420060317 35 224 0.0 12.0 0.00 0.00 0.00 71 1022.2
20240420060240 35 233 0.0 12.0 0.00 0.00 0.00 71 1022.3
20240420060140 35 279 0.0 12.0 0.00 0.00 0.00 71 1022.3
20240420060041 35 261 0.0 10.0 0.00 0.00 0.00 71 1022.2
20240420055951 35 279 0.0 10.0 0.00 0.00 0.00 71 1022.3
20240420055840 35 247 0.0 10.0 0.00 0.00 0.00 71 1022.2
20240420055814 35 265 0.0 10.0 0.00 0.00 0.00 71 1022.2
20240420055752 35 272 0.0 10.0 0.00 0.00 0.00 71 1022.3
20240420055742 35 266 0.0 12.0 0.00 0.00 0.00 71 1022.3
20240420055734 35 248 0.0 12.0 0.00 0.00 0.00 71 1022.3
20240420055653 35 275 0.0 10.0 0.00 0.00 0.00 71 1022.2
20240420055555 35 278 0.0 12.0 0.00 0.00 0.00 71 1022.2
20240420055240 35 258 0.0 12.0 0.00 0.00 0.00 71 1022.2
20240420055137 35 226 0.0 12.0 0.00 0.00 0.00 71 1022.2
20240420055037 35 251 0.0 14.0 0.00 0.00 0.00 71 1022.2
20240420054930 35 262 0.0 14.0 0.00 0.00 0.00 71 1022.2
20240420054839 35 252 0.0 14.0 0.00 0.00 0.00 71 1022.2
20240420054815 35 278 0.0 14.0 0.00 0.00 0.00 71 1022.2
20240420054800 35 283 0.0 16.0 0.00 0.00 0.00 71 1022.2
20240420054749 35 244 0.0 16.0 0.00 0.00 0.00 71 1022.2
20240420054740 35 250 0.0 16.0 0.00 0.00 0.00 71 1022.2
20240420054652 35 241 0.0 16.0 0.00 0.00 0.00 71 1022.2
20240420054552 35 261 0.0 16.0 0.00 0.00 0.00 71 1022.2
20240420054234 35 298 0.0 16.0 0.00 0.00 0.00 71 1022.2
20240420054138 35 286 0.0 16.0 0.00 0.00 0.00 71 1022.2
20240420054034 35 248 0.0 16.0 0.00 0.00 0.00 71 1022.1
20240420053930 35 288 0.0 16.0 0.00 0.00 0.00 71 1022.2
20240420053814 35 281 0.0 16.0 0.00 0.00 0.00 71 1022.2
20240420053800 35 228 0.0 16.0 0.00 0.00 0.00 71 1022.2
20240420053741 35 235 0.0 7.0 0.00 0.00 0.00 71 1022.2
20240420053734 35 248 0.0 10.0 0.00 0.00 0.00 71 1022.3
20240420053647 35 289 0.0 10.0 0.00 0.00 0.00 71 1022.2
20240420053546 35 259 0.0 10.0 0.00 0.00 0.00 71 1022.3
20240420053252 35 234 0.0 10.0 0.00 0.00 0.00 71 1022.2
20240420053152 35 266 0.0 10.0 0.00 0.00 0.00 71 1022.1
20240420053048 35 296 0.0 10.0 0.00 0.00 0.00 71 1022.2
20240420052949 35 281 0.0 10.0 0.00 0.00 0.00 71 1022.2
20240420052846 35 269 0.0 10.0 0.00 0.00 0.00 71 1022.1
20240420052810 35 292 0.0 10.0 0.00 0.00 0.00 71 1022.1
20240420052753 35 252 0.0 10.0 0.00 0.00 0.00 72 1022.2
20240420052747 35 265 0.0 10.0 0.00 0.00 0.00 72 1022.1
20240420052714 35 295 0.0 10.0 0.00 0.00 0.00 72 1022.2
20240420052644 35 271 0.0 10.0 0.00 0.00 0.00 71 1022.2
20240420052611 35 300 0.0 10.0 0.00 0.00 0.00 72 1022.2
20240420052539 35 278 0.0 10.0 0.00 0.00 0.00 72 1022.2
20240420052232 34 289 0.0 10.0 0.00 0.00 0.00 71 1022.2
20240420052130 35 298 0.0 10.0 0.00 0.00 0.00 71 1022.2
20240420052029 34 272 0.0 10.0 0.00 0.00 0.00 71 1022.2
20240420051933 34 285 0.0 5.0 0.00 0.00 0.00 71 1022.1
20240420051829 34 268 0.0 5.0 0.00 0.00 0.00 71 1022.3
20240420051812 34 258 0.0 5.0 0.00 0.00 0.00 71 1022.3
20240420051731 34 233 0.0 5.0 0.00 0.00 0.00 71 1022.2
20240420051630 34 279 0.0 5.0 0.00 0.00 0.00 71 1022.1
20240420051521 34 265 0.0 7.0 0.00 0.00 0.00 71 1022.1
20240420051418 34 282 0.0 7.0 0.00 0.00 0.00 71 1022.1
20240420051320 34 233 0.0 7.0 0.00 0.00 0.00 71 1022.1
20240420051309 34 261 0.0 7.0 0.00 0.00 0.00 71 1022.1
20240420051215 34 254 0.0 7.0 0.00 0.00 0.00 71 1022.1
20240420051112 34 255 0.0 9.0 0.00 0.00 0.00 71 1022.1
20240420051012 34 289 0.0 9.0 0.00 0.00 0.00 71 1022.1
20240420050909 34 224 0.0 9.0 0.00 0.00 0.00 71 1022.1
20240420050807 34 305 0.0 9.0 0.00 0.00 0.00 71 1022.0
20240420050708 34 266 0.0 10.0 0.00 0.00 0.00 71 1022.1
20240420050607 34 317 0.0 10.0 0.00 0.00 0.00 71 1022.1
20240420050507 34 228 0.0 10.0 0.00 0.00 0.00 71 1022.1
20240420050409 34 285 0.0 10.0 0.00 0.00 0.00 71 1022.1
20240420050312 34 231 0.0 10.0 0.00 0.00 0.00 71 1022.1
20240420050308 34 231 0.0 10.0 0.00 0.00 0.00 71 1022.0
20240420050204 34 288 0.0 13.0 0.00 0.00 0.00 71 1022.1
20240420050105 34 279 0.0 13.0 0.00 0.00 0.00 71 1022.0
20240420050004 34 247 0.0 13.0 0.00 0.00 0.00 71 1022.0
20240420045900 34 252 0.0 13.0 0.00 0.00 0.00 71 1022.0
20240420045808 34 248 0.0 13.0 0.00 0.00 0.00 71 1022.0
20240420045758 34 262 0.0 13.0 0.00 0.00 0.00 71 1022.0
20240420045655 34 269 0.0 13.0 0.00 0.00 0.00 71 1022.0
20240420045554 34 258 0.0 13.0 0.00 0.00 0.00 71 1022.0
20240420045519 34 269 0.0 13.0 0.00 0.00 0.00 71 1021.9
20240420045425 34 271 0.0 13.0 0.00 0.00 0.00 71 1022.0
20240420045323 34 317 0.0 13.0 0.00 0.00 0.00 71 1021.9
20240420045307 34 257 0.0 13.0 0.00 0.00 0.00 71 1022.0
20240420045218 34 254 0.0 9.0 0.00 0.00 0.00 71 1022.0
20240420045115 34 298 0.0 9.0 0.00 0.00 0.00 71 1022.0
20240420045008 34 282 0.0 9.0 0.00 0.00 0.00 71 1021.9
20240420044909 34 261 0.0 9.0 0.00 0.00 0.00 71 1021.9
20240420044821 34 278 0.0 9.0 0.00 0.00 0.00 71 1021.9
20240420044807 34 310 0.0 9.0 0.00 0.00 0.00 71 1021.9
20240420044706 34 275 0.0 9.0 0.00 0.00 0.00 71 1021.9
20240420044559 34 265 0.0 9.0 0.00 0.00 0.00 71 1021.8
20240420044501 34 274 0.0 9.0 0.00 0.00 0.00 71 1022.0
20240420044359 34 307 0.0 9.0 0.00 0.00 0.00 71 1022.0
20240420044308 34 250 0.0 9.0 0.00 0.00 0.00 71 1022.0
20240420044259 34 274 0.0 9.0 0.00 0.00 0.00 72 1022.0
20240420044217 34 272 0.0 9.0 0.00 0.00 0.00 72 1022.0
20240420044205 34 264 0.0 9.0 0.00 0.00 0.00 72 1022.0
20240420044146 34 272 0.0 9.0 0.00 0.00 0.00 72 1022.0
20240420044102 34 271 0.0 9.0 0.00 0.00 0.00 72 1022.0
20240420043752 34 274 0.0 9.0 0.00 0.00 0.00 72 1022.0
20240420043645 34 248 0.0 9.0 0.00 0.00 0.00 72 1022.0
20240420043547 34 245 0.0 9.0 0.00 0.00 0.00 71 1022.0
20240420043447 34 281 0.0 9.0 0.00 0.00 0.00 72 1022.0
20240420043351 34 276 0.0 7.0 0.00 0.00 0.00 72 1022.0
20240420043307 34 276 0.0 7.0 0.00 0.00 0.00 72 1022.0
20240420043243 34 285 0.0 7.0 0.00 0.00 0.00 72 1022.0
20240420043138 34 266 0.0 7.0 0.00 0.00 0.00 72 1022.1
20240420043036 34 261 0.0 7.0 0.00 0.00 0.00 72 1022.1
20240420042935 34 268 0.0 7.0 0.00 0.00 0.00 72 1021.9
20240420042834 34 240 0.0 10.0 0.00 0.00 0.00 72 1022.0